Wetterdaten: Sonntag, 07.05.2017
Datum Zeit Temp. Aussen Temp. o. S. +5cm Feuchte Auss BlattFeu 1 Luftdruck Regen Sonnenschein Regendauer Solar Windben Empfang
07.05.2017 00:00 13,3 C 11,1 C 8,9 C 77 % 0 lf 1008,8 hPa 0,0 l/m 0 min 0 min 0 W/m 0,0 km/h (0 Bft) 95,65 %
07.05.2017 00:02 13,2 C 11,1 C 8,3 C 77 % 0 lf 1008,9 hPa 0,0 l/m 0 min 0 min 0 W/m 4,2 km/h (1 Bft) 90,62 %
07.05.2017 00:04 13,2 C 11,1 C 8,3 C 77 % 0 lf 1008,8 hPa 0,0 l/m 0 min 0 min 0 W/m 2,1 km/h (1 Bft) 95,74 %
07.05.2017 00:06 13,1 C 10,6 C 8,3 C 77 % 0 lf 1008,8 hPa 0,0 l/m 0 min 0 min 0 W/m 0,0 km/h (0 Bft) 97,87 %
07.05.2017 00:10 13,0 C 10,6 C 8,3 C 78 % 0 lf 1008,9 hPa 0,0 l/m 0 min 0 min 0 W/m 0,0 km/h (0 Bft) 98,94 %
07.05.2017 00:12 12,9 C 10,6 C 8,3 C 78 % 0 lf 1008,9 hPa 0,0 l/m 0 min 0 min 0 W/m 4,2 km/h (1 Bft) 100,00 %
07.05.2017 00:14 12,9 C 10,6 C 8,3 C 78 % 0 lf 1008,9 hPa 0,0 l/m 0 min 0 min 0 W/m 4,2 km/h (1 Bft) 100,00 %
07.05.2017 00:16 12,8 C 10,6 C 8,3 C 78 % 0 lf 1008,9 hPa 0,0 l/m 0 min 0 min 0 W/m 4,2 km/h (1 Bft) 95,74 %
07.05.2017 00:18 12,8 C 10,6 C 8,3 C 79 % 0 lf 1009,0 hPa 0,0 l/m 0 min 0 min 0 W/m 4,2 km/h (1 Bft) 100,00 %
07.05.2017 00:20 12,7 C 11,1 C 8,3 C 79 % 0 lf 1009,1 hPa 0,0 l/m 0 min 0 min 0 W/m 12,6 km/h (3 Bft) 100,00 %
07.05.2017 00:22 12,7 C 11,1 C 8,9 C 80 % 0 lf 1009,3 hPa 0,0 l/m 0 min 0 min 0 W/m 16,7 km/h (3 Bft) 100,00 %
07.05.2017 00:24 12,6 C 11,7 C 9,4 C 80 % 0 lf 1009,3 hPa 0,0 l/m 0 min 0 min 0 W/m 18,8 km/h (3 Bft) 100,00 %
07.05.2017 00:26 12,5 C 11,7 C 9,4 C 81 % 0 lf 1009,3 hPa 0,0 l/m 0 min 0 min 0 W/m 10,5 km/h (2 Bft) 100,00 %
07.05.2017 00:28 12,4 C 11,7 C 10,0 C 81 % 0 lf 1009,3 hPa 0,0 l/m 0 min 0 min 0 W/m 6,3 km/h (2 Bft) 97,87 %
07.05.2017 00:30 12,4 C 11,7 C 10,0 C 81 % 0 lf 1009,3 hPa 0,0 l/m 0 min 0 min 0 W/m 6,3 km/h (2 Bft) 100,00 %
07.05.2017 00:32 12,4 C 11,7 C 10,0 C 82 % 0 lf 1009,3 hPa 0,0 l/m 0 min 0 min 0 W/m 6,3 km/h (2 Bft) 100,00 %
07.05.2017 00:34 12,4 C 11,7 C 10,0 C 82 % 0 lf 1009,2 hPa 0,0 l/m 0 min 0 min 0 W/m 8,4 km/h (2 Bft) 100,00 %
07.05.2017 00:36 12,3 C 11,7 C 10,0 C 82 % 0 lf 1009,3 hPa 0,0 l/m 0 min 0 min 0 W/m 8,4 km/h (2 Bft) 91,49 %
07.05.2017 00:38 12,3 C 11,7 C 9,4 C 82 % 0 lf 1009,3 hPa 0,0 l/m 0 min 0 min 0 W/m 8,4 km/h (2 Bft) 100,00 %
07.05.2017 00:40 12,3 C 11,7 C 9,4 C 82 % 0 lf 1009,3 hPa 0,0 l/m 0 min 0 min 0 W/m 8,4 km/h (2 Bft) 93,62 %
07.05.2017 00:42 12,3 C 11,7 C 9,4 C 83 % 0 lf 1009,4 hPa 0,0 l/m 0 min 0 min 0 W/m 10,5 km/h (2 Bft) 97,87 %
07.05.2017 00:44 12,3 C 11,7 C 9,4 C 83 % 0 lf 1009,3 hPa 0,0 l/m 0 min 0 min 0 W/m 6,3 km/h (2 Bft) 97,83 %
07.05.2017 00:46 12,2 C 11,7 C 9,4 C 83 % 0 lf 1009,3 hPa 0,0 l/m 0 min 0 min 0 W/m 6,3 km/h (2 Bft) 93,62 %
07.05.2017 00:48 12,2 C 11,7 C 10,0 C 83 % 0 lf 1009,3 hPa 0,0 l/m 0 min 0 min 0 W/m 6,3 km/h (2 Bft) 95,74 %
07.05.2017 00:50 12,2 C 11,7 C 9,4 C 83 % 0 lf 1009,4 hPa 0,0 l/m 0 min 0 min 0 W/m 4,2 km/h (1 Bft) 97,87 %
07.05.2017 00:52 12,2 C 11,1 C 9,4 C 83 % 0 lf 1009,4 hPa 0,0 l/m 0 min 0 min 0 W/m 8,4 km/h (2 Bft) 97,87 %
07.05.2017 00:54 12,2 C 11,1 C 9,4 C 83 % 0 lf 1009,4 hPa 0,0 l/m 0 min 0 min 0 W/m 10,5 km/h (2 Bft) 95,74 %
07.05.2017 00:56 12,2 C 11,1 C 9,4 C 83 % 0 lf 1009,4 hPa 0,0 l/m 0 min 0 min 0 W/m 6,3 km/h (2 Bft) 93,48 %
07.05.2017 00:58 12,1 C 11,1 C 9,4 C 83 % 0 lf 1009,3 hPa 0,0 l/m 0 min 0 min 0 W/m 6,3 km/h (2 Bft) 95,74 %
07.05.2017 01:00 12,1 C 11,1 C 9,4 C 84 % 0 lf 1009,3 hPa 0,0 l/m 0 min 0 min 0 W/m 6,3 km/h (2 Bft) 91,49 %
07.05.2017 01:02 12,1 C 11,1 C 9,4 C 84 % 0 lf 1009,3 hPa 0,0 l/m 0 min 0 min 0 W/m 6,3 km/h (2 Bft) 95,74 %
07.05.2017 01:04 12,1 C 11,1 C 9,4 C 84 % 0 lf 1009,4 hPa 0,0 l/m 0 min 0 min 0 W/m 4,2 km/h (1 Bft) 93,62 %
07.05.2017 01:06 12,1 C 11,1 C 8,9 C 84 % 0 lf 1009,4 hPa 0,0 l/m 0 min 0 min 0 W/m 2,1 km/h (1 Bft) 95,65 %
07.05.2017 01:08 12,1 C 11,1 C 8,9 C 84 % 0 lf 1009,4 hPa 0,0 l/m 0 min 0 min 0 W/m 4,2 km/h (1 Bft) 91,49 %
07.05.2017 01:10 12,0 C 11,1 C 9,4 C 84 % 0 lf 1009,3 hPa 0,0 l/m 0 min 0 min 0 W/m 6,3 km/h (2 Bft) 95,74 %
07.05.2017 01:12 12,0 C 11,1 C 9,4 C 84 % 0 lf 1009,3 hPa 0,0 l/m 0 min 0 min 0 W/m 6,3 km/h (2 Bft) 93,62 %
07.05.2017 01:14 12,0 C 11,1 C 9,4 C 84 % 0 lf 1009,4 hPa 0,0 l/m 0 min 0 min 0 W/m 2,1 km/h (1 Bft) 91,49 %
07.05.2017 01:16 11,9 C 11,1 C 9,4 C 84 % 0 lf 1009,4 hPa 0,0 l/m 0 min 0 min 0 W/m 4,2 km/h (1 Bft) 95,74 %
07.05.2017 01:18 11,9 C 11,1 C 8,9 C 84 % 0 lf 1009,4 hPa 0,0 l/m 0 min 0 min 0 W/m 4,2 km/h (1 Bft) 95,65 %
07.05.2017 01:20 11,9 C 11,1 C 8,9 C 84 % 0 lf 1009,4 hPa 0,0 l/m 0 min 0 min 0 W/m 6,3 km/h (2 Bft) 95,74 %
07.05.2017 01:22 11,9 C 11,1 C 9,4 C 84 % 0 lf 1009,4 hPa 0,0 l/m 0 min 0 min 0 W/m 4,2 km/h (1 Bft) 95,74 %
07.05.2017 01:24 11,9 C 11,1 C 8,9 C 84 % 0 lf 1009,4 hPa 0,0 l/m 0 min 0 min 0 W/m 4,2 km/h (1 Bft) 93,62 %
07.05.2017 01:26 11,9 C 11,1 C 8,9 C 84 % 0 lf 1009,5 hPa 0,0 l/m 0 min 0 min 0 W/m 4,2 km/h (1 Bft) 93,62 %
07.05.2017 01:28 11,9 C 10,6 C 8,9 C 84 % 0 lf 1009,4 hPa 0,0 l/m 0 min 0 min 0 W/m 6,3 km/h (2 Bft) 93,62 %
07.05.2017 01:30 11,8 C 10,6 C 8,9 C 84 % 0 lf 1009,5 hPa 0,0 l/m 0 min 0 min 0 W/m 4,2 km/h (1 Bft) 89,36 %
07.05.2017 01:32 11,8 C 10,6 C 8,9 C 84 % 0 lf 1009,5 hPa 0,0 l/m 0 min 0 min 0 W/m 4,2 km/h (1 Bft) 95,65 %
07.05.2017 01:34 11,8 C 10,6 C 8,9 C 84 % 0 lf 1009,5 hPa 0,0 l/m 0 min 0 min 0 W/m 2,1 km/h (1 Bft) 93,62 %
07.05.2017 01:36 11,8 C 10,6 C 8,9 C 84 % 0 lf 1009,5 hPa 0,0 l/m 0 min 0 min 0 W/m 6,3 km/h (2 Bft) 97,87 %
07.05.2017 01:38 11,8 C 10,6 C 8,9 C 84 % 0 lf 1009,5 hPa 0,0 l/m 0 min 0 min 0 W/m 8,4 km/h (2 Bft) 97,87 %
07.05.2017 01:40 11,8 C 10,6 C 8,9 C 84 % 0 lf 1009,6 hPa 0,0 l/m 0 min 0 min 0 W/m 2,1 km/h (1 Bft) 97,87 %
07.05.2017 01:42 11,7 C 10,6 C 8,9 C 84 % 0 lf 1009,5 hPa 0,0 l/m 0 min 0 min 0 W/m 4,2 km/h (1 Bft) 95,65 %
07.05.2017 01:44 11,7 C 10,6 C 8,9 C 84 % 0 lf 1009,5 hPa 0,0 l/m 0 min 0 min 0 W/m 6,3 km/h (2 Bft) 95,74 %
07.05.2017 01:46 11,7 C 10,6 C 8,9 C 85 % 0 lf 1009,5 hPa 0,0 l/m 0 min 0 min 0 W/m 8,4 km/h (2 Bft) 95,74 %
07.05.2017 01:48 11,7 C 10,6 C 8,9 C 85 % 0 lf 1009,5 hPa 0,0 l/m 0 min 0 min 0 W/m 6,3 km/h (2 Bft) 95,74 %
07.05.2017 01:50 11,6 C 10,6 C 8,9 C 85 % 0 lf 1009,5 hPa 0,0 l/m 0 min 0 min 0 W/m 8,4 km/h (2 Bft) 95,74 %
07.05.2017 01:52 11,6 C 10,6 C 8,9 C 85 % 0 lf 1009,5 hPa 0,0 l/m 0 min 0 min 0 W/m 6,3 km/h (2 Bft) 91,49 %
07.05.2017 01:54 11,6 C 10,6 C 8,9 C 85 % 0 lf 1009,5 hPa 0,0 l/m 0 min 0 min 0 W/m 8,4 km/h (2 Bft) 95,65 %
07.05.2017 01:56 11,6 C 10,6 C 8,9 C 85 % 0 lf 1009,5 hPa 0,0 l/m 0 min 0 min 0 W/m 6,3 km/h (2 Bft) 93,62 %
07.05.2017 01:58 11,6 C 10,6 C 8,9 C 85 % 0 lf 1009,6 hPa 0,0 l/m 0 min 0 min 0 W/m 4,2 km/h (1 Bft) 97,87 %
07.05.2017 02:00 11,6 C 10,6 C 8,9 C 85 % 0 lf 1009,5 hPa 0,0 l/m 0 min 0 min 0 W/m 6,3 km/h (2 Bft) 97,87 %
07.05.2017 02:02 11,5 C 10,6 C 8,9 C 85 % 0 lf 1009,5 hPa 0,0 l/m 0 min 0 min 0 W/m 6,3 km/h (2 Bft) 97,87 %
07.05.2017 02:04 11,5 C 10,6 C 8,3 C 85 % 0 lf 1009,6 hPa 0,0 l/m 0 min 0 min 0 W/m 4,2 km/h (1 Bft) 97,87 %
07.05.2017 02:06 11,5 C 10,6 C 8,3 C 85 % 0 lf 1009,5 hPa 0,0 l/m 0 min 0 min 0 W/m 4,2 km/h (1 Bft) 97,83 %
07.05.2017 02:08 11,4 C 10,6 C 8,3 C 85 % 0 lf 1009,5 hPa 0,0 l/m 0 min 0 min 0 W/m 4,2 km/h (1 Bft) 97,87 %
07.05.2017 02:10 11,4 C 10,6 C 8,3 C 85 % 0 lf 1009,5 hPa 0,0 l/m 0 min 0 min 0 W/m 6,3 km/h (2 Bft) 97,87 %
07.05.2017 02:12 11,4 C 10,6 C 8,3 C 85 % 0 lf 1009,5 hPa 0,0 l/m 0 min 0 min 0 W/m 4,2 km/h (1 Bft) 97,87 %
07.05.2017 02:14 11,4 C 10,6 C 8,3 C 85 % 0 lf 1009,6 hPa 0,0 l/m 0 min 0 min 0 W/m 4,2 km/h (1 Bft) 93,62 %
07.05.2017 02:16 11,4 C 10,6 C 8,3 C 85 % 0 lf 1009,5 hPa 0,0 l/m 0 min 0 min 0 W/m 4,2 km/h (1 Bft) 95,74 %
07.05.2017 02:18 11,3 C 10,6 C 8,3 C 85 % 0 lf 1009,5 hPa 0,0 l/m 0 min 0 min 0 W/m 4,2 km/h (1 Bft) 97,83 %
07.05.2017 02:20 11,3 C 10,6 C 8,3 C 85 % 0 lf 1009,5 hPa 0,0 l/m 0 min 0 min 0 W/m 4,2 km/h (1 Bft) 93,62 %
07.05.2017 02:22 11,3 C 10,6 C 8,3 C 85 % 0 lf 1009,6 hPa 0,0 l/m 0 min 0 min 0 W/m 6,3 km/h (2 Bft) 93,62 %
07.05.2017 02:24 11,3 C 10,6 C 8,3 C 85 % 0 lf 1009,7 hPa 0,0 l/m 0 min 0 min 0 W/m 4,2 km/h (1 Bft) 95,74 %
07.05.2017 02:26 11,3 C 10,0 C 8,3 C 85 % 0 lf 1009,7 hPa 0,0 l/m 0 min 0 min 0 W/m 4,2 km/h (1 Bft) 97,87 %
07.05.2017 02:28 11,3 C 10,0 C 8,3 C 85 % 0 lf 1009,7 hPa 0,0 l/m 0 min 0 min 0 W/m 2,1 km/h (1 Bft) 95,74 %
07.05.2017 02:30 11,2 C 10,0 C 8,3 C 85 % 0 lf 1009,6 hPa 0,0 l/m 0 min 0 min 0 W/m 2,1 km/h (1 Bft) 95,65 %
07.05.2017 02:32 11,2 C 10,0 C 8,3 C 85 % 0 lf 1009,7 hPa 0,0 l/m 0 min 0 min 0 W/m 4,2 km/h (1 Bft) 97,87 %
07.05.2017 02:34 11,2 C 10,0 C 8,3 C 85 % 0 lf 1009,6 hPa 0,0 l/m 0 min 0 min 0 W/m 6,3 km/h (2 Bft) 97,87 %
07.05.2017 02:36 11,2 C 10,0 C 8,3 C 86 % 0 lf 1009,5 hPa 0,0 l/m 0 min 0 min 0 W/m 4,2 km/h (1 Bft) 93,62 %
07.05.2017 02:38 11,2 C 10,0 C 8,3 C 86 % 0 lf 1009,6 hPa 0,0 l/m 0 min 0 min 0 W/m 8,4 km/h (2 Bft) 97,87 %
07.05.2017 02:40 11,2 C 10,0 C 8,3 C 86 % 0 lf 1009,6 hPa 0,0 l/m 0 min 0 min 0 W/m 8,4 km/h (2 Bft) 97,83 %
07.05.2017 02:42 11,2 C 10,6 C 8,9 C 86 % 0 lf 1009,7 hPa 0,0 l/m 0 min 0 min 0 W/m 6,3 km/h (2 Bft) 95,74 %
07.05.2017 02:44 11,2 C 10,6 C 8,9 C 86 % 0 lf 1009,9 hPa 0,0 l/m 0 min 0 min 0 W/m 6,3 km/h (2 Bft) 97,87 %
07.05.2017 02:46 11,2 C 10,6 C 8,9 C 87 % 0 lf 1009,9 hPa 0,0 l/m 0 min 0 min 0 W/m 8,4 km/h (2 Bft) 95,74 %
07.05.2017 02:48 11,2 C 10,6 C 8,9 C 87 % 0 lf 1009,9 hPa 0,0 l/m 0 min 0 min 0 W/m 8,4 km/h (2 Bft) 97,87 %
07.05.2017 02:50 11,2 C 10,6 C 8,9 C 88 % 0 lf 1009,9 hPa 0,0 l/m 0 min 0 min 0 W/m 6,3 km/h (2 Bft) 97,87 %
07.05.2017 02:52 11,2 C 10,6 C 8,9 C 88 % 0 lf 1009,9 hPa 0,0 l/m 0 min 0 min 0 W/m 8,4 km/h (2 Bft) 93,48 %
07.05.2017 02:54 11,2 C 10,6 C 8,9 C 88 % 0 lf 1009,9 hPa 0,0 l/m 0 min 0 min 0 W/m 6,3 km/h (2 Bft) 100,00 %
07.05.2017 02:56 11,2 C 10,6 C 8,9 C 88 % 0 lf 1009,9 hPa 0,0 l/m 0 min 0 min 0 W/m 6,3 km/h (2 Bft) 100,00 %
07.05.2017 02:58 11,2 C 10,6 C 8,9 C 88 % 0 lf 1009,9 hPa 0,0 l/m 0 min 0 min 0 W/m 6,3 km/h (2 Bft) 97,87 %
07.05.2017 03:00 11,1 C 10,6 C 8,9 C 88 % 0 lf 1010,0 hPa 0,0 l/m 0 min 0 min 0 W/m 8,4 km/h (2 Bft) 97,87 %
07.05.2017 03:02 11,2 C 10,6 C 8,9 C 89 % 0 lf 1009,9 hPa 0,0 l/m 0 min 0 min 0 W/m 6,3 km/h (2 Bft) 95,74 %
07.05.2017 03:04 11,1 C 10,6 C 8,9 C 89 % 0 lf 1009,9 hPa 0,0 l/m 0 min 0 min 0 W/m 8,4 km/h (2 Bft) 100,00 %
07.05.2017 03:06 11,1 C 10,6 C 8,9 C 89 % 0 lf 1009,9 hPa 0,0 l/m 0 min 0 min 0 W/m 8,4 km/h (2 Bft) 100,00 %
07.05.2017 03:08 11,1 C 10,6 C 8,9 C 89 % 0 lf 1009,9 hPa 0,0 l/m 0 min 0 min 0 W/m 8,4 km/h (2 Bft) 100,00 %
07.05.2017 03:10 11,1 C 10,6 C 8,9 C 89 % 0 lf 1009,9 hPa 0,0 l/m 0 min 0 min 0 W/m 8,4 km/h (2 Bft) 97,87 %
07.05.2017 03:12 11,1 C 10,6 C 8,9 C 89 % 0 lf 1009,9 hPa 0,0 l/m 0 min 0 min 0 W/m 8,4 km/h (2 Bft) 97,87 %
07.05.2017 03:14 11,1 C 10,6 C 8,9 C 89 % 0 lf 1009,9 hPa 0,0 l/m 0 min 0 min 0 W/m 6,3 km/h (2 Bft) 97,87 %
07.05.2017 03:16 11,1 C 10,6 C 8,9 C 90 % 0 lf 1009,9 hPa 0,0 l/m 0 min 0 min 0 W/m 10,5 km/h (2 Bft) 100,00 %
07.05.2017 03:18 11,1 C 10,6 C 8,9 C 90 % 0 lf 1009,9 hPa 0,0 l/m 0 min 0 min 0 W/m 6,3 km/h (2 Bft) 95,74 %
07.05.2017 03:20 11,1 C 10,6 C 8,9 C 90 % 0 lf 1009,9 hPa 0,0 l/m 0 min 0 min 0 W/m 6,3 km/h (2 Bft) 97,87 %
07.05.2017 03:22 11,1 C 10,6 C 8,9 C 90 % 0 lf 1009,8 hPa 0,0 l/m 0 min 0 min 0 W/m 6,3 km/h (2 Bft) 89,36 %
07.05.2017 03:24 11,1 C 10,6 C 8,9 C 90 % 0 lf 1009,9 hPa 0,0 l/m 0 min 0 min 0 W/m 8,4 km/h (2 Bft) 95,74 %
07.05.2017 03:26 11,1 C 10,6 C 8,9 C 90 % 0 lf 1009,9 hPa 0,0 l/m 0 min 0 min 0 W/m 8,4 km/h (2 Bft) 93,62 %
07.05.2017 03:28 11,1 C 10,6 C 8,9 C 90 % 0 lf 1009,9 hPa 0,0 l/m 0 min 0 min 0 W/m 8,4 km/h (2 Bft) 97,83 %
07.05.2017 03:30 11,1 C 10,6 C 8,9 C 90 % 0 lf 1009,9 hPa 0,0 l/m 0 min 0 min 0 W/m 8,4 km/h (2 Bft) 95,74 %
07.05.2017 03:32 11,0 C 10,0 C 8,9 C 90 % 0 lf 1009,9 hPa 0,0 l/m 0 min 0 min 0 W/m 8,4 km/h (2 Bft) 95,74 %
07.05.2017 03:34 11,0 C 10,0 C 8,9 C 90 % 0 lf 1009,9 hPa 0,0 l/m 0 min 0 min 0 W/m 6,3 km/h (2 Bft) 93,62 %
07.05.2017 03:36 11,0 C 10,0 C 8,9 C 90 % 0 lf 1009,9 hPa 0,0 l/m 0 min 0 min 0 W/m 6,3 km/h (2 Bft) 91,49 %
07.05.2017 03:38 11,0 C 10,0 C 8,9 C 90 % 0 lf 1009,9 hPa 0,0 l/m 0 min 0 min 0 W/m 6,3 km/h (2 Bft) 97,83 %
07.05.2017 03:40 10,9 C 10,0 C 8,9 C 90 % 0 lf 1010,0 hPa 0,0 l/m 0 min 0 min 0 W/m 6,3 km/h (2 Bft) 95,74 %
07.05.2017 03:42 10,9 C 10,0 C 8,9 C 90 % 0 lf 1010,0 hPa 0,0 l/m 0 min 0 min 0 W/m 6,3 km/h (2 Bft) 91,49 %
07.05.2017 03:44 10,9 C 10,0 C 8,9 C 90 % 0 lf 1010,0 hPa 0,0 l/m 0 min 0 min 0 W/m 6,3 km/h (2 Bft) 93,62 %
07.05.2017 03:46 10,9 C 10,0 C 8,9 C 90 % 0 lf 1010,0 hPa 0,0 l/m 0 min 0 min 0 W/m 6,3 km/h (2 Bft) 91,49 %
07.05.2017 03:48 10,9 C 10,0 C 8,9 C 91 % 0 lf 1010,0 hPa 0,0 l/m 0 min 0 min 0 W/m 8,4 km/h (2 Bft) 89,36 %
07.05.2017 03:50 10,9 C 10,0 C 8,9 C 91 % 0 lf 1010,0 hPa 0,0 l/m 0 min 0 min 0 W/m 6,3 km/h (2 Bft) 95,74 %
07.05.2017 03:52 10,9 C 10,0 C 8,9 C 91 % 0 lf 1010,1 hPa 0,0 l/m 0 min 0 min 0 W/m 8,4 km/h (2 Bft) 95,65 %
07.05.2017 03:54 10,8 C 10,0 C 8,9 C 91 % 0 lf 1010,0 hPa 0,0 l/m 0 min 0 min 0 W/m 6,3 km/h (2 Bft) 95,74 %
07.05.2017 03:56 10,8 C 10,0 C 8,9 C 91 % 0 lf 1010,0 hPa 0,0 l/m 0 min 0 min 0 W/m 8,4 km/h (2 Bft) 95,74 %
07.05.2017 03:58 10,8 C 10,0 C 8,9 C 91 % 0 lf 1010,0 hPa 0,0 l/m 0 min 0 min 0 W/m 8,4 km/h (2 Bft) 95,74 %
07.05.2017 04:00 10,8 C 10,0 C 8,9 C 91 % 0 lf 1010,0 hPa 0,0 l/m 0 min 0 min 0 W/m 8,4 km/h (2 Bft) 95,74 %
07.05.2017 04:03 10,8 C 10,0 C 8,9 C 91 % 0 lf 1010,0 hPa 0,0 l/m 0 min 0 min 0 W/m 10,5 km/h (2 Bft) 100,00 %
07.05.2017 04:04 10,8 C 10,0 C 8,9 C 91 % 0 lf 1010,0 hPa 0,0 l/m 0 min 0 min 0 W/m 10,5 km/h (2 Bft) 95,65 %
07.05.2017 04:06 10,8 C 10,0 C 8,9 C 91 % 0 lf 1010,1 hPa 0,0 l/m 0 min 0 min 0 W/m 8,4 km/h (2 Bft) 91,49 %
07.05.2017 04:08 10,7 C 10,0 C 8,9 C 91 % 0 lf 1010,1 hPa 0,0 l/m 0 min 0 min 0 W/m 6,3 km/h (2 Bft) 100,00 %
07.05.2017 04:10 10,7 C 10,0 C 8,9 C 91 % 0 lf 1010,2 hPa 0,0 l/m 0 min 0 min 0 W/m 8,4 km/h (2 Bft) 95,74 %
07.05.2017 04:12 10,7 C 10,0 C 8,9 C 91 % 0 lf 1010,1 hPa 0,0 l/m 0 min 0 min 0 W/m 8,4 km/h (2 Bft) 97,87 %
07.05.2017 04:14 10,7 C 10,0 C 8,3 C 91 % 0 lf 1010,2 hPa 0,0 l/m 0 min 0 min 0 W/m 8,4 km/h (2 Bft) 95,65 %
07.05.2017 04:16 10,7 C 10,0 C 8,3 C 91 % 0 lf 1010,1 hPa 0,0 l/m 0 min 0 min 0 W/m 8,4 km/h (2 Bft) 95,74 %
07.05.2017 04:18 10,6 C 10,0 C 8,3 C 92 % 1 lf 1010,1 hPa 0,0 l/m 0 min 0 min 0 W/m 8,4 km/h (2 Bft) 97,87 %
07.05.2017 04:20 10,6 C 10,0 C 8,3 C 92 % 0 lf 1010,2 hPa 0,0 l/m 0 min 0 min 0 W/m 6,3 km/h (2 Bft) 95,74 %
07.05.2017 04:22 10,6 C 10,0 C 8,3 C 92 % 0 lf 1010,2 hPa 0,0 l/m 0 min 0 min 0 W/m 8,4 km/h (2 Bft) 97,87 %
07.05.2017 04:24 10,6 C 10,0 C 8,3 C 92 % 1 lf 1010,2 hPa 0,0 l/m 0 min 0 min 0 W/m 6,3 km/h (2 Bft) 95,74 %
07.05.2017 04:26 10,6 C 10,0 C 8,3 C 92 % 1 lf 1010,1 hPa 0,0 l/m 0 min 0 min 0 W/m 6,3 km/h (2 Bft) 95,65 %
07.05.2017 04:28 10,6 C 9,4 C 8,3 C 92 % 1 lf 1010,1 hPa 0,0 l/m 0 min 0 min 0 W/m 6,3 km/h (2 Bft) 97,87 %
07.05.2017 04:30 10,5 C 9,4 C 8,3 C 92 % 1 lf 1010,1 hPa 0,0 l/m 0 min 0 min 0 W/m 8,4 km/h (2 Bft) 97,87 %
07.05.2017 04:32 10,5 C 9,4 C 7,8 C 92 % 1 lf 1010,1 hPa 0,0 l/m 0 min 0 min 0 W/m 6,3 km/h (2 Bft) 97,87 %
07.05.2017 04:34 10,5 C 9,4 C 7,8 C 92 % 1 lf 1010,2 hPa 0,0 l/m 0 min 0 min 0 W/m 8,4 km/h (2 Bft) 95,74 %
07.05.2017 04:36 10,4 C 9,4 C 7,8 C 92 % 1 lf 1010,2 hPa 0,0 l/m 0 min 0 min 0 W/m 6,3 km/h (2 Bft) 100,00 %
07.05.2017 04:38 10,4 C 9,4 C 7,8 C 92 % 1 lf 1010,2 hPa 0,0 l/m 0 min 0 min 0 W/m 6,3 km/h (2 Bft) 97,83 %
07.05.2017 04:40 10,4 C 9,4 C 7,8 C 92 % 1 lf 1010,2 hPa 0,0 l/m 0 min 0 min 0 W/m 6,3 km/h (2 Bft) 100,00 %
07.05.2017 04:42 10,4 C 9,4 C 7,8 C 92 % 1 lf 1010,2 hPa 0,0 l/m 0 min 0 min 0 W/m 6,3 km/h (2 Bft) 100,00 %
07.05.2017 04:44 10,3 C 9,4 C 7,8 C 92 % 1 lf 1010,2 hPa 0,0 l/m 0 min 0 min 0 W/m 6,3 km/h (2 Bft) 100,00 %
07.05.2017 04:46 10,3 C 9,4 C 7,8 C 92 % 1 lf 1010,2 hPa 0,0 l/m 0 min 0 min 0 W/m 8,4 km/h (2 Bft) 100,00 %
07.05.2017 04:48 10,3 C 9,4 C 7,8 C 92 % 1 lf 1010,2 hPa 0,0 l/m 0 min 0 min 0 W/m 6,3 km/h (2 Bft) 100,00 %
07.05.2017 04:50 10,3 C 8,9 C 7,8 C 92 % 1 lf 1010,2 hPa 0,0 l/m 0 min 0 min 0 W/m 6,3 km/h (2 Bft) 97,83 %
07.05.2017 04:52 10,2 C 9,4 C 7,8 C 92 % 1 lf 1010,3 hPa 0,0 l/m 0 min 0 min 0 W/m 6,3 km/h (2 Bft) 100,00 %
07.05.2017 04:54 10,2 C 8,9 C 7,8 C 92 % 1 lf 1010,3 hPa 0,0 l/m 0 min 0 min 0 W/m 6,3 km/h (2 Bft) 97,87 %
07.05.2017 04:56 10,2 C 8,9 C 7,8 C 92 % 1 lf 1010,3 hPa 0,0 l/m 0 min 0 min 0 W/m 6,3 km/h (2 Bft) 100,00 %
07.05.2017 04:58 10,2 C 8,9 C 7,8 C 92 % 1 lf 1010,2 hPa 0,0 l/m 0 min 0 min 0 W/m 8,4 km/h (2 Bft) 97,87 %
07.05.2017 05:00 10,2 C 8,9 C 7,8 C 92 % 1 lf 1010,3 hPa 0,0 l/m 0 min 0 min 0 W/m 10,5 km/h (2 Bft) 100,00 %
07.05.2017 05:02 10,1 C 8,9 C 7,8 C 92 % 1 lf 1010,3 hPa 0,0 l/m 0 min 0 min 0 W/m 6,3 km/h (2 Bft) 97,87 %
07.05.2017 05:04 10,1 C 8,9 C 7,8 C 92 % 1 lf 1010,3 hPa 0,0 l/m 0 min 0 min 0 W/m 8,4 km/h (2 Bft) 100,00 %
07.05.2017 05:06 10,1 C 8,9 C 7,8 C 92 % 1 lf 1010,3 hPa 0,0 l/m 0 min 0 min 0 W/m 6,3 km/h (2 Bft) 100,00 %
07.05.2017 05:08 10,0 C 8,9 C 7,8 C 92 % 1 lf 1010,3 hPa 0,0 l/m 0 min 0 min 0 W/m 6,3 km/h (2 Bft) 93,62 %
07.05.2017 05:10 10,0 C 8,9 C 7,8 C 92 % 1 lf 1010,3 hPa 0,0 l/m 0 min 0 min 0 W/m 8,4 km/h (2 Bft) 100,00 %
07.05.2017 05:12 9,9 C 8,9 C 7,8 C 92 % 1 lf 1010,4 hPa 0,0 l/m 0 min 0 min 0 W/m 10,5 km/h (2 Bft) 97,83 %
07.05.2017 05:14 9,9 C 8,9 C 7,8 C 92 % 1 lf 1010,3 hPa 0,0 l/m 0 min 0 min 0 W/m 8,4 km/h (2 Bft) 97,87 %
07.05.2017 05:16 9,9 C 8,9 C 7,2 C 92 % 1 lf 1010,4 hPa 0,0 l/m 0 min 0 min 0 W/m 10,5 km/h (2 Bft) 97,87 %
07.05.2017 05:18 9,9 C 8,9 C 7,2 C 92 % 1 lf 1010,4 hPa 0,0 l/m 0 min 0 min 0 W/m 6,3 km/h (2 Bft) 97,87 %
07.05.2017 05:20 9,8 C 8,9 C 7,8 C 92 % 1 lf 1010,3 hPa 0,0 l/m 0 min 0 min 0 W/m 8,4 km/h (2 Bft) 95,74 %
07.05.2017 05:22 9,8 C 8,9 C 7,8 C 92 % 1 lf 1010,3 hPa 0,0 l/m 0 min 0 min 0 W/m 8,4 km/h (2 Bft) 97,87 %
07.05.2017 05:24 9,8 C 8,9 C 7,8 C 92 % 1 lf 1010,3 hPa 0,0 l/m 0 min 0 min 0 W/m 8,4 km/h (2 Bft) 97,83 %
07.05.2017 05:26 9,8 C 8,9 C 7,2 C 92 % 1 lf 1010,4 hPa 0,0 l/m 0 min 0 min 0 W/m 6,3 km/h (2 Bft) 97,87 %
07.05.2017 05:28 9,7 C 8,9 C 7,2 C 92 % 1 lf 1010,4 hPa 0,0 l/m 0 min 0 min 0 W/m 8,4 km/h (2 Bft) 97,87 %
07.05.2017 05:30 9,7 C 8,9 C 7,2 C 93 % 2 lf 1010,4 hPa 0,0 l/m 0 min 0 min 0 W/m 6,3 km/h (2 Bft) 97,87 %
07.05.2017 05:32 9,7 C 8,3 C 7,2 C 93 % 2 lf 1010,4 hPa 0,0 l/m 0 min 0 min 0 W/m 6,3 km/h (2 Bft) 97,87 %
07.05.2017 05:34 9,7 C 8,3 C 7,2 C 93 % 2 lf 1010,4 hPa 0,0 l/m 0 min 0 min 0 W/m 8,4 km/h (2 Bft) 97,87 %
07.05.2017 05:36 9,6 C 8,3 C 7,2 C 93 % 2 lf 1010,4 hPa 0,0 l/m 0 min 0 min 0 W/m 6,3 km/h (2 Bft) 97,83 %
07.05.2017 05:38 9,6 C 8,3 C 7,2 C 93 % 2 lf 1010,4 hPa 0,0 l/m 0 min 0 min 0 W/m 6,3 km/h (2 Bft) 95,74 %
07.05.2017 05:40 9,6 C 8,3 C 7,2 C 93 % 2 lf 1010,4 hPa 0,0 l/m 0 min 0 min 0 W/m 6,3 km/h (2 Bft) 100,00 %
07.05.2017 05:42 9,6 C 8,3 C 7,2 C 93 % 2 lf 1010,4 hPa 0,0 l/m 0 min 0 min 0 W/m 6,3 km/h (2 Bft) 97,87 %
07.05.2017 05:44 9,6 C 8,3 C 7,2 C 93 % 2 lf 1010,4 hPa 0,0 l/m 0 min 0 min 0 W/m 4,2 km/h (1 Bft) 97,87 %
07.05.2017 05:46 9,5 C 8,3 C 7,2 C 93 % 3 lf 1010,5 hPa 0,0 l/m 0 min 0 min 0 W/m 4,2 km/h (1 Bft) 100,00 %
07.05.2017 05:48 9,5 C 8,3 C 7,2 C 93 % 3 lf 1010,5 hPa 0,0 l/m 0 min 0 min 0 W/m 2,1 km/h (1 Bft) 100,00 %
07.05.2017 05:50 9,5 C 8,3 C 7,2 C 93 % 3 lf 1010,5 hPa 0,0 l/m 0 min 0 min 0 W/m 4,2 km/h (1 Bft) 100,00 %
07.05.2017 05:52 9,4 C 8,3 C 7,2 C 93 % 3 lf 1010,4 hPa 0,0 l/m 0 min 0 min 0 W/m 4,2 km/h (1 Bft) 97,87 %
07.05.2017 05:54 9,4 C 8,3 C 7,2 C 93 % 3 lf 1010,4 hPa 0,0 l/m 0 min 0 min 0 W/m 6,3 km/h (2 Bft) 97,87 %
07.05.2017 05:56 9,4 C 8,3 C 7,2 C 93 % 3 lf 1010,4 hPa 0,0 l/m 0 min 0 min 0 W/m 4,2 km/h (1 Bft) 97,87 %
07.05.2017 05:58 9,4 C 8,3 C 7,2 C 93 % 3 lf 1010,4 hPa 0,0 l/m 0 min 0 min 0 W/m 4,2 km/h (1 Bft) 95,74 %
07.05.2017 06:00 9,4 C 8,3 C 7,2 C 93 % 3 lf 1010,4 hPa 0,0 l/m 0 min 0 min 0 W/m 6,3 km/h (2 Bft) 95,65 %
07.05.2017 06:02 9,4 C 8,3 C 7,2 C 93 % 3 lf 1010,4 hPa 0,0 l/m 0 min 0 min 0 W/m 6,3 km/h (2 Bft) 93,62 %
07.05.2017 06:04 9,3 C 8,3 C 7,2 C 93 % 3 lf 1010,4 hPa 0,0 l/m 0 min 0 min 4 W/m 8,4 km/h (2 Bft) 95,74 %
07.05.2017 06:06 9,3 C 8,3 C 7,2 C 93 % 3 lf 1010,4 hPa 0,0 l/m 0 min 0 min 5 W/m 6,3 km/h (2 Bft) 97,87 %
07.05.2017 06:08 9,3 C 8,9 C 7,2 C 93 % 3 lf 1010,4 hPa 0,0 l/m 0 min 0 min 5 W/m 4,2 km/h (1 Bft) 95,74 %
07.05.2017 06:10 9,3 C 8,9 C 7,2 C 93 % 3 lf 1010,4 hPa 0,0 l/m 0 min 0 min 6 W/m 6,3 km/h (2 Bft) 95,74 %
07.05.2017 06:12 9,3 C 8,9 C 7,2 C 93 % 3 lf 1010,5 hPa 0,0 l/m 0 min 0 min 7 W/m 6,3 km/h (2 Bft) 95,65 %
07.05.2017 06:14 9,3 C 8,9 C 7,2 C 93 % 3 lf 1010,5 hPa 0,0 l/m 0 min 0 min 7 W/m 4,2 km/h (1 Bft) 95,74 %
07.05.2017 06:16 9,3 C 8,9 C 7,2 C 93 % 3 lf 1010,6 hPa 0,0 l/m 0 min 0 min 9 W/m 2,1 km/h (1 Bft) 89,36 %
07.05.2017 06:18 9,3 C 8,9 C 7,2 C 93 % 3 lf 1010,6 hPa 0,0 l/m 0 min 0 min 9 W/m 2,1 km/h (1 Bft) 95,74 %
07.05.2017 06:20 9,2 C 8,9 C 7,2 C 93 % 3 lf 1010,6 hPa 0,0 l/m 0 min 0 min 9 W/m 2,1 km/h (1 Bft) 95,74 %
07.05.2017 06:22 9,2 C 8,9 C 7,2 C 93 % 3 lf 1010,7 hPa 0,0 l/m 0 min 0 min 11 W/m 0,0 km/h (0 Bft) 95,65 %
07.05.2017 06:24 9,2 C 8,9 C 7,2 C 93 % 3 lf 1010,7 hPa 0,0 l/m 0 min 0 min 11 W/m 2,1 km/h (1 Bft) 95,74 %
07.05.2017 06:26 9,2 C 8,9 C 7,2 C 93 % 3 lf 1010,7 hPa 0,0 l/m 0 min 0 min 12 W/m 2,1 km/h (1 Bft) 95,74 %
07.05.2017 06:28 9,2 C 8,9 C 7,2 C 93 % 3 lf 1010,8 hPa 0,0 l/m 0 min 0 min 14 W/m 0,0 km/h (0 Bft) 95,74 %
07.05.2017 06:30 9,2 C 8,9 C 7,2 C 93 % 3 lf 1010,7 hPa 0,0 l/m 0 min 0 min 15 W/m 0,0 km/h (0 Bft) 91,49 %
07.05.2017 06:32 9,2 C 8,9 C 7,2 C 93 % 3 lf 1010,7 hPa 0,0 l/m 0 min 0 min 17 W/m 0,0 km/h (0 Bft) 91,49 %
07.05.2017 06:34 9,2 C 8,9 C 7,8 C 93 % 3 lf 1010,8 hPa 0,0 l/m 0 min 0 min 19 W/m 0,0 km/h (0 Bft) 95,65 %
07.05.2017 06:36 9,2 C 8,9 C 7,8 C 93 % 3 lf 1010,8 hPa 0,0 l/m 0 min 0 min 21 W/m 0,0 km/h (0 Bft) 93,62 %
07.05.2017 06:38 9,2 C 8,9 C 7,8 C 93 % 2 lf 1010,8 hPa 0,0 l/m 0 min 0 min 22 W/m 4,2 km/h (1 Bft) 95,74 %
07.05.2017 06:40 9,2 C 8,9 C 7,8 C 93 % 2 lf 1010,8 hPa 0,0 l/m 0 min 0 min 24 W/m 2,1 km/h (1 Bft) 95,74 %
07.05.2017 06:42 9,2 C 8,9 C 7,8 C 93 % 2 lf 1010,8 hPa 0,0 l/m 0 min 0 min 25 W/m 0,0 km/h (0 Bft) 91,49 %
07.05.2017 06:44 9,1 C 9,4 C 7,8 C 93 % 2 lf 1010,9 hPa 0,0 l/m 0 min 0 min 26 W/m 0,0 km/h (0 Bft) 93,62 %
07.05.2017 06:46 9,1 C 9,4 C 7,8 C 93 % 2 lf 1010,9 hPa 0,0 l/m 0 min 0 min 29 W/m 0,0 km/h (0 Bft) 91,30 %
07.05.2017 06:48 9,1 C 9,4 C 7,8 C 93 % 2 lf 1010,9 hPa 0,0 l/m 0 min 0 min 30 W/m 0,0 km/h (0 Bft) 93,62 %
07.05.2017 06:50 9,2 C 9,4 C 7,8 C 94 % 1 lf 1010,9 hPa 0,0 l/m 0 min 0 min 30 W/m 2,1 km/h (1 Bft) 91,49 %
07.05.2017 06:52 9,2 C 9,4 C 7,8 C 94 % 1 lf 1011,0 hPa 0,0 l/m 0 min 0 min 32 W/m 2,1 km/h (1 Bft) 93,62 %
07.05.2017 06:54 9,2 C 9,4 C 8,3 C 94 % 1 lf 1011,0 hPa 0,0 l/m 0 min 0 min 34 W/m 2,1 km/h (1 Bft) 91,49 %
07.05.2017 06:56 9,2 C 9,4 C 8,3 C 94 % 1 lf 1011,0 hPa 0,0 l/m 0 min 0 min 37 W/m 2,1 km/h (1 Bft) 97,87 %
07.05.2017 06:58 9,2 C 10,0 C 8,3 C 94 % 1 lf 1011,1 hPa 0,0 l/m 0 min 0 min 39 W/m 4,2 km/h (1 Bft) 93,48 %
07.05.2017 07:00 9,2 C 10,0 C 8,3 C 94 % 1 lf 1011,1 hPa 0,0 l/m 0 min 0 min 43 W/m 6,3 km/h (2 Bft) 87,23 %
07.05.2017 07:02 9,2 C 10,0 C 8,9 C 94 % 0 lf 1011,1 hPa 0,0 l/m 0 min 0 min 46 W/m 4,2 km/h (1 Bft) 91,49 %
07.05.2017 07:04 9,2 C 10,6 C 8,9 C 94 % 0 lf 1011,1 hPa 0,0 l/m 0 min 0 min 49 W/m 4,2 km/h (1 Bft) 93,62 %
07.05.2017 07:06 9,2 C 10,6 C 8,9 C 94 % 0 lf 1011,2 hPa 0,0 l/m 0 min 0 min 48 W/m 4,2 km/h (1 Bft) 93,62 %
07.05.2017 07:08 9,3 C 10,6 C 8,9 C 94 % 0 lf 1011,2 hPa 0,0 l/m 0 min 0 min 50 W/m 4,2 km/h (1 Bft) 93,62 %
07.05.2017 07:10 9,3 C 10,6 C 8,9 C 94 % 0 lf 1011,2 hPa 0,0 l/m 0 min 0 min 54 W/m 2,1 km/h (1 Bft) 95,65 %
07.05.2017 07:12 9,3 C 11,1 C 9,4 C 94 % 0 lf 1011,3 hPa 0,0 l/m 0 min 0 min 58 W/m 4,2 km/h (1 Bft) 93,62 %
07.05.2017 07:14 9,4 C 11,1 C 9,4 C 94 % 0 lf 1011,3 hPa 0,0 l/m 0 min 0 min 63 W/m 6,3 km/h (2 Bft) 91,49 %
07.05.2017 07:16 9,4 C 11,1 C 9,4 C 94 % 0 lf 1011,3 hPa 0,0 l/m 0 min 0 min 64 W/m 6,3 km/h (2 Bft) 95,74 %
07.05.2017 07:18 9,5 C 11,7 C 9,4 C 94 % 0 lf 1011,3 hPa 0,0 l/m 0 min 0 min 63 W/m 4,2 km/h (1 Bft) 93,62 %
07.05.2017 07:20 9,5 C 11,7 C 9,4 C 94 % 0 lf 1011,2 hPa 0,0 l/m 0 min 0 min 63 W/m 6,3 km/h (2 Bft) 97,87 %
07.05.2017 07:22 9,6 C 12,2 C 10,0 C 94 % 0 lf 1011,3 hPa 0,0 l/m 0 min 0 min 69 W/m 8,4 km/h (2 Bft) 93,48 %
07.05.2017 07:24 9,6 C 12,2 C 10,0 C 95 % 0 lf 1011,3 hPa 0,0 l/m 0 min 0 min 75 W/m 8,4 km/h (2 Bft) 91,49 %
07.05.2017 07:26 9,6 C 12,2 C 10,0 C 95 % 0 lf 1011,4 hPa 0,0 l/m 0 min 0 min 70 W/m 4,2 km/h (1 Bft) 95,74 %
07.05.2017 07:28 9,7 C 12,2 C 10,0 C 95 % 0 lf 1011,4 hPa 0,0 l/m 0 min 0 min 68 W/m 8,4 km/h (2 Bft) 95,74 %
07.05.2017 07:30 9,7 C 12,2 C 10,0 C 95 % 0 lf 1011,4 hPa 0,0 l/m 0 min 0 min 60 W/m 6,3 km/h (2 Bft) 95,74 %
07.05.2017 07:32 9,7 C 12,2 C 10,6 C 95 % 0 lf 1011,4 hPa 0,0 l/m 0 min 0 min 59 W/m 8,4 km/h (2 Bft) 95,65 %
07.05.2017 07:34 9,8 C 12,2 C 10,6 C 95 % 0 lf 1011,4 hPa 0,0 l/m 0 min 0 min 56 W/m 6,3 km/h (2 Bft) 95,74 %
07.05.2017 07:36 9,8 C 12,2 C 10,6 C 95 % 0 lf 1011,4 hPa 0,0 l/m 0 min 0 min 57 W/m 8,4 km/h (2 Bft) 100,00 %
07.05.2017 07:38 9,9 C 12,2 C 10,6 C 95 % 0 lf 1011,4 hPa 0,0 l/m 0 min 0 min 64 W/m 8,4 km/h (2 Bft) 97,87 %
07.05.2017 07:40 9,9 C 12,8 C 10,6 C 95 % 0 lf 1011,5 hPa 0,0 l/m 0 min 0 min 78 W/m 8,4 km/h (2 Bft) 100,00 %
07.05.2017 07:42 9,9 C 12,8 C 11,1 C 95 % 0 lf 1011,5 hPa 0,0 l/m 0 min 0 min 78 W/m 8,4 km/h (2 Bft) 100,00 %
07.05.2017 07:44 10,0 C 12,8 C 11,1 C 95 % 0 lf 1011,5 hPa 0,0 l/m 0 min 0 min 74 W/m 8,4 km/h (2 Bft) 100,00 %
07.05.2017 07:46 10,1 C 12,8 C 11,1 C 95 % 0 lf 1011,5 hPa 0,0 l/m 0 min 0 min 81 W/m 6,3 km/h (2 Bft) 100,00 %
07.05.2017 07:48 10,1 C 12,8 C 11,1 C 95 % 0 lf 1011,6 hPa 0,0 l/m 0 min 0 min 74 W/m 10,5 km/h (2 Bft) 97,87 %
07.05.2017 07:50 10,2 C 12,8 C 11,1 C 96 % 0 lf 1011,6 hPa 0,0 l/m 0 min 0 min 66 W/m 10,5 km/h (2 Bft) 100,00 %
07.05.2017 07:52 10,2 C 12,2 C 10,6 C 96 % 0 lf 1011,7 hPa 0,0 l/m 0 min 0 min 65 W/m 10,5 km/h (2 Bft) 100,00 %
07.05.2017 07:54 10,2 C 12,2 C 10,6 C 96 % 0 lf 1011,7 hPa 0,0 l/m 0 min 0 min 56 W/m 8,4 km/h (2 Bft) 98,00 %
07.05.2017 07:56 10,2 C 12,2 C 10,6 C 96 % 0 lf 1011,7 hPa 0,0 l/m 0 min 0 min 60 W/m 10,5 km/h (2 Bft) 100,00 %
07.05.2017 07:58 10,2 C 12,2 C 11,1 C 96 % 0 lf 1011,7 hPa 0,0 l/m 0 min 0 min 66 W/m 6,3 km/h (2 Bft) 95,74 %
07.05.2017 08:00 10,3 C 12,8 C 11,1 C 96 % 0 lf 1011,7 hPa 0,0 l/m 0 min 0 min 71 W/m 6,3 km/h (2 Bft) 97,87 %
07.05.2017 08:02 10,3 C 12,8 C 11,1 C 96 % 0 lf 1011,8 hPa 0,0 l/m 0 min 0 min 69 W/m 8,4 km/h (2 Bft) 97,87 %
07.05.2017 08:04 10,3 C 12,8 C 11,1 C 96 % 0 lf 1011,8 hPa 0,0 l/m 0 min 0 min 64 W/m 10,5 km/h (2 Bft) 97,87 %
07.05.2017 08:06 10,4 C 12,2 C 11,1 C 96 % 0 lf 1011,8 hPa 0,0 l/m 0 min 0 min 62 W/m 12,6 km/h (3 Bft) 95,74 %
07.05.2017 08:08 10,4 C 12,8 C 11,1 C 96 % 0 lf 1011,9 hPa 0,0 l/m 0 min 0 min 59 W/m 8,4 km/h (2 Bft) 100,00 %
07.05.2017 08:10 10,4 C 12,8 C 11,1 C 96 % 0 lf 1011,9 hPa 0,0 l/m 0 min 0 min 60 W/m 10,5 km/h (2 Bft) 100,00 %
07.05.2017 08:12 10,4 C 12,8 C 11,1 C 96 % 0 lf 1011,9 hPa 0,0 l/m 0 min 0 min 60 W/m 10,5 km/h (2 Bft) 100,00 %
07.05.2017 08:14 10,5 C 12,8 C 11,1 C 96 % 0 lf 1011,9 hPa 0,0 l/m 0 min 0 min 63 W/m 8,4 km/h (2 Bft) 100,00 %
07.05.2017 08:16 10,5 C 12,8 C 11,1 C 96 % 0 lf 1012,0 hPa 0,0 l/m 0 min 0 min 59 W/m 6,3 km/h (2 Bft) 89,36 %
07.05.2017 08:18 10,5 C 12,2 C 11,1 C 96 % 0 lf 1012,0 hPa 0,0 l/m 0 min 0 min 53 W/m 8,4 km/h (2 Bft) 100,00 %
07.05.2017 08:20 10,6 C 12,2 C 11,1 C 96 % 0 lf 1012,0 hPa 0,0 l/m 0 min 0 min 53 W/m 8,4 km/h (2 Bft) 100,00 %
07.05.2017 08:22 10,6 C 12,8 C 11,1 C 96 % 0 lf 1012,0 hPa 0,0 l/m 0 min 0 min 55 W/m 8,4 km/h (2 Bft) 100,00 %
07.05.2017 08:24 10,6 C 12,2 C 11,1 C 96 % 0 lf 1012,0 hPa 0,0 l/m 0 min 0 min 50 W/m 8,4 km/h (2 Bft) 97,87 %
07.05.2017 08:26 10,6 C 12,2 C 11,1 C 96 % 0 lf 1012,0 hPa 0,0 l/m 0 min 0 min 52 W/m 6,3 km/h (2 Bft) 100,00 %
07.05.2017 08:28 10,7 C 12,8 C 11,7 C 96 % 0 lf 1012,1 hPa 0,0 l/m 0 min 0 min 62 W/m 8,4 km/h (2 Bft) 95,74 %
07.05.2017 08:30 10,7 C 12,8 C 11,7 C 96 % 0 lf 1012,1 hPa 0,0 l/m 0 min 0 min 61 W/m 8,4 km/h (2 Bft) 100,00 %
07.05.2017 08:32 10,7 C 12,8 C 11,1 C 96 % 0 lf 1012,1 hPa 0,0 l/m 0 min 0 min 58 W/m 12,6 km/h (3 Bft) 95,65 %
07.05.2017 08:34 10,7 C 12,8 C 11,1 C 96 % 0 lf 1012,1 hPa 0,0 l/m 0 min 0 min 57 W/m 12,6 km/h (3 Bft) 100,00 %
07.05.2017 08:36 10,8 C 12,8 C 11,7 C 96 % 0 lf 1012,1 hPa 0,0 l/m 0 min 0 min 62 W/m 10,5 km/h (2 Bft) 100,00 %
07.05.2017 08:38 10,8 C 12,2 C 11,1 C 96 % 0 lf 1012,1 hPa 0,0 l/m 0 min 0 min 65 W/m 12,6 km/h (3 Bft) 97,87 %
07.05.2017 08:40 10,8 C 12,2 C 11,1 C 96 % 0 lf 1012,1 hPa 0,0 l/m 0 min 0 min 65 W/m 10,5 km/h (2 Bft) 100,00 %
07.05.2017 08:42 10,8 C 12,2 C 11,1 C 96 % 0 lf 1012,1 hPa 0,0 l/m 0 min 0 min 68 W/m 12,6 km/h (3 Bft) 100,00 %
07.05.2017 08:44 10,8 C 12,8 C 11,1 C 96 % 0 lf 1012,2 hPa 0,0 l/m 0 min 0 min 77 W/m 10,5 km/h (2 Bft) 97,87 %
07.05.2017 08:46 10,8 C 12,8 C 11,7 C 96 % 0 lf 1012,2 hPa 0,0 l/m 0 min 0 min 80 W/m 10,5 km/h (2 Bft) 97,87 %
07.05.2017 08:48 10,8 C 12,8 C 11,7 C 96 % 0 lf 1012,2 hPa 0,0 l/m 0 min 0 min 77 W/m 8,4 km/h (2 Bft) 97,87 %
07.05.2017 08:50 10,8 C 12,8 C 11,7 C 96 % 0 lf 1012,2 hPa 0,0 l/m 0 min 0 min 73 W/m 12,6 km/h (3 Bft) 100,00 %
07.05.2017 08:52 10,8 C 12,8 C 11,7 C 96 % 0 lf 1012,3 hPa 0,0 l/m 0 min 0 min 73 W/m 10,5 km/h (2 Bft) 97,87 %
07.05.2017 08:54 10,8 C 12,8 C 11,7 C 96 % 0 lf 1012,3 hPa 0,0 l/m 0 min 0 min 68 W/m 10,5 km/h (2 Bft) 97,87 %
07.05.2017 08:56 10,9 C 12,8 C 12,2 C 96 % 0 lf 1012,3 hPa 0,0 l/m 0 min 0 min 67 W/m 10,5 km/h (2 Bft) 100,00 %
07.05.2017 08:58 10,9 C 12,8 C 12,2 C 96 % 0 lf 1012,3 hPa 0,0 l/m 0 min 0 min 69 W/m 12,6 km/h (3 Bft) 95,74 %
07.05.2017 09:00 10,9 C 12,8 C 11,7 C 96 % 0 lf 1012,3 hPa 0,0 l/m 0 min 0 min 71 W/m 10,5 km/h (2 Bft) 95,74 %
07.05.2017 09:02 10,9 C 12,8 C 11,7 C 96 % 0 lf 1012,3 hPa 0,0 l/m 0 min 0 min 70 W/m 10,5 km/h (2 Bft) 95,74 %
07.05.2017 09:04 11,0 C 12,8 C 11,7 C 96 % 0 lf 1012,4 hPa 0,0 l/m 0 min 0 min 68 W/m 10,5 km/h (2 Bft) 93,62 %
07.05.2017 09:06 11,0 C 12,8 C 11,7 C 96 % 0 lf 1012,4 hPa 0,0 l/m 0 min 0 min 60 W/m 12,6 km/h (3 Bft) 91,30 %
07.05.2017 09:08 11,0 C 12,8 C 11,7 C 96 % 0 lf 1012,5 hPa 0,0 l/m 0 min 0 min 42 W/m 12,6 km/h (3 Bft) 95,74 %
07.05.2017 09:10 11,0 C 12,2 C 11,1 C 96 % 0 lf 1012,5 hPa 0,0 l/m 0 min 0 min 56 W/m 16,7 km/h (3 Bft) 95,74 %
07.05.2017 09:12 11,0 C 12,2 C 11,1 C 96 % 0 lf 1012,5 hPa 0,0 l/m 0 min 0 min 63 W/m 12,6 km/h (3 Bft) 91,49 %
07.05.2017 09:14 10,9 C 12,2 C 11,1 C 95 % 0 lf 1012,4 hPa 0,0 l/m 0 min 0 min 64 W/m 10,5 km/h (2 Bft) 95,74 %
07.05.2017 09:16 11,0 C 12,2 C 11,1 C 95 % 0 lf 1012,5 hPa 0,0 l/m 0 min 0 min 64 W/m 12,6 km/h (3 Bft) 93,62 %
07.05.2017 09:18 10,9 C 12,8 C 11,7 C 95 % 0 lf 1012,5 hPa 0,0 l/m 0 min 0 min 69 W/m 14,6 km/h (3 Bft) 97,83 %
07.05.2017 09:20 11,0 C 12,8 C 11,7 C 95 % 0 lf 1012,6 hPa 0,0 l/m 0 min 0 min 72 W/m 8,4 km/h (2 Bft) 95,74 %
07.05.2017 09:22 11,0 C 12,8 C 11,7 C 95 % 0 lf 1012,6 hPa 0,0 l/m 0 min 0 min 72 W/m 12,6 km/h (3 Bft) 95,74 %
07.05.2017 09:24 11,0 C 12,8 C 11,7 C 95 % 0 lf 1012,6 hPa 0,0 l/m 0 min 0 min 75 W/m 12,6 km/h (3 Bft) 97,87 %
07.05.2017 09:26 11,0 C 12,8 C 11,7 C 95 % 0 lf 1012,7 hPa 0,0 l/m 0 min 0 min 71 W/m 8,4 km/h (2 Bft) 93,62 %
07.05.2017 09:28 11,1 C 12,8 C 11,7 C 95 % 0 lf 1012,8 hPa 0,0 l/m 0 min 0 min 70 W/m 10,5 km/h (2 Bft) 95,74 %
07.05.2017 09:30 11,1 C 12,8 C 11,7 C 95 % 0 lf 1012,8 hPa 0,0 l/m 0 min 0 min 73 W/m 14,6 km/h (3 Bft) 95,65 %
07.05.2017 09:32 11,1 C 13,3 C 11,7 C 95 % 0 lf 1012,8 hPa 0,0 l/m 0 min 0 min 68 W/m 8,4 km/h (2 Bft) 97,87 %
07.05.2017 09:34 11,1 C 12,8 C 12,2 C 95 % 0 lf 1012,8 hPa 0,0 l/m 0 min 0 min 67 W/m 16,7 km/h (3 Bft) 97,87 %
07.05.2017 09:36 11,2 C 12,8 C 12,2 C 95 % 0 lf 1012,8 hPa 0,0 l/m 0 min 0 min 67 W/m 14,6 km/h (3 Bft) 95,74 %
07.05.2017 09:38 11,2 C 12,8 C 12,2 C 95 % 0 lf 1012,8 hPa 0,0 l/m 0 min 0 min 70 W/m 14,6 km/h (3 Bft) 97,87 %
07.05.2017 09:40 11,2 C 13,3 C 12,2 C 95 % 0 lf 1012,8 hPa 0,0 l/m 0 min 0 min 79 W/m 14,6 km/h (3 Bft) 95,74 %
07.05.2017 09:42 11,3 C 13,3 C 12,2 C 95 % 0 lf 1012,8 hPa 0,0 l/m 0 min 0 min 86 W/m 16,7 km/h (3 Bft) 93,48 %
07.05.2017 09:44 11,3 C 13,3 C 12,2 C 95 % 0 lf 1012,9 hPa 0,0 l/m 0 min 0 min 84 W/m 10,5 km/h (2 Bft) 93,62 %
07.05.2017 09:46 11,3 C 13,3 C 12,8 C 95 % 0 lf 1012,9 hPa 0,0 l/m 0 min 0 min 86 W/m 12,6 km/h (3 Bft) 93,62 %
07.05.2017 09:48 11,4 C 13,3 C 12,8 C 95 % 0 lf 1012,9 hPa 0,0 l/m 0 min 0 min 97 W/m 18,8 km/h (3 Bft) 91,49 %
07.05.2017 09:50 11,4 C 13,9 C 12,8 C 95 % 0 lf 1012,9 hPa 0,0 l/m 0 min 0 min 98 W/m 14,6 km/h (3 Bft) 95,74 %
07.05.2017 09:52 11,4 C 13,9 C 12,8 C 95 % 0 lf 1012,9 hPa 0,0 l/m 0 min 0 min 100 W/m 12,6 km/h (3 Bft) 95,74 %
07.05.2017 09:54 11,4 C 13,9 C 12,8 C 95 % 0 lf 1012,9 hPa 0,0 l/m 0 min 0 min 108 W/m 12,6 km/h (3 Bft) 95,65 %
07.05.2017 09:56 11,5 C 13,9 C 12,8 C 95 % 0 lf 1012,9 hPa 0,0 l/m 0 min 0 min 94 W/m 12,6 km/h (3 Bft) 93,62 %
07.05.2017 09:58 11,5 C 13,9 C 12,8 C 95 % 0 lf 1013,0 hPa 0,0 l/m 0 min 0 min 90 W/m 12,6 km/h (3 Bft) 97,87 %
07.05.2017 10:00 11,5 C 13,9 C 12,8 C 95 % 0 lf 1013,0 hPa 0,0 l/m 0 min 0 min 91 W/m 10,5 km/h (2 Bft) 95,74 %
07.05.2017 10:02 11,6 C 13,9 C 13,3 C 95 % 0 lf 1013,0 hPa 0,0 l/m 0 min 0 min 94 W/m 12,6 km/h (3 Bft) 95,74 %
07.05.2017 10:04 11,7 C 13,9 C 13,3 C 95 % 0 lf 1013,0 hPa 0,0 l/m 0 min 0 min 98 W/m 8,4 km/h (2 Bft) 93,62 %
07.05.2017 10:06 11,7 C 14,4 C 13,3 C 95 % 0 lf 1013,0 hPa 0,0 l/m 0 min 0 min 103 W/m 14,6 km/h (3 Bft) 95,65 %
07.05.2017 10:08 11,7 C 14,4 C 13,3 C 95 % 0 lf 1013,0 hPa 0,0 l/m 0 min 0 min 122 W/m 16,7 km/h (3 Bft) 97,87 %
07.05.2017 10:10 11,7 C 14,4 C 13,3 C 95 % 0 lf 1013,0 hPa 0,0 l/m 0 min 0 min 121 W/m 8,4 km/h (2 Bft) 91,49 %
07.05.2017 10:12 11,8 C 14,4 C 13,3 C 95 % 0 lf 1013,1 hPa 0,0 l/m 0 min 0 min 87 W/m 8,4 km/h (2 Bft) 95,74 %
07.05.2017 10:14 11,8 C 13,9 C 12,8 C 95 % 0 lf 1013,1 hPa 0,0 l/m 0 min 0 min 78 W/m 12,6 km/h (3 Bft) 95,74 %
07.05.2017 10:16 11,8 C 13,9 C 12,8 C 94 % 0 lf 1013,2 hPa 0,0 l/m 0 min 0 min 83 W/m 12,6 km/h (3 Bft) 95,65 %
07.05.2017 10:18 11,8 C 13,9 C 12,8 C 95 % 0 lf 1013,2 hPa 0,0 l/m 0 min 0 min 100 W/m 14,6 km/h (3 Bft) 95,74 %
07.05.2017 10:20 11,8 C 14,4 C 13,3 C 94 % 0 lf 1013,2 hPa 0,0 l/m 0 min 0 min 124 W/m 12,6 km/h (3 Bft) 93,62 %
07.05.2017 10:22 11,8 C 14,4 C 13,9 C 94 % 0 lf 1013,3 hPa 0,0 l/m 0 min 0 min 142 W/m 14,6 km/h (3 Bft) 93,62 %
07.05.2017 10:24 11,8 C 15,0 C 13,9 C 94 % 0 lf 1013,3 hPa 0,0 l/m 0 min 0 min 134 W/m 10,5 km/h (2 Bft) 95,74 %
07.05.2017 10:26 11,9 C 15,0 C 14,4 C 94 % 0 lf 1013,4 hPa 0,0 l/m 0 min 0 min 138 W/m 14,6 km/h (3 Bft) 95,74 %
07.05.2017 10:28 11,9 C 15,6 C 14,4 C 94 % 0 lf 1013,4 hPa 0,0 l/m 0 min 0 min 141 W/m 16,7 km/h (3 Bft) 97,83 %
07.05.2017 10:30 11,9 C 15,6 C 14,4 C 94 % 0 lf 1013,4 hPa 0,0 l/m 0 min 0 min 142 W/m 14,6 km/h (3 Bft) 95,74 %
07.05.2017 10:32 12,0 C 15,6 C 14,4 C 94 % 0 lf 1013,5 hPa 0,0 l/m 0 min 0 min 141 W/m 14,6 km/h (3 Bft) 95,74 %
07.05.2017 10:34 12,0 C 15,6 C 14,4 C 94 % 0 lf 1013,5 hPa 0,0 l/m 0 min 0 min 134 W/m 12,6 km/h (3 Bft) 97,87 %
07.05.2017 10:36 12,1 C 15,6 C 14,4 C 94 % 0 lf 1013,5 hPa 0,0 l/m 0 min 0 min 128 W/m 14,6 km/h (3 Bft) 95,74 %
07.05.2017 10:38 12,1 C 15,0 C 13,9 C 94 % 0 lf 1013,6 hPa 0,0 l/m 0 min 0 min 129 W/m 16,7 km/h (3 Bft) 97,87 %
07.05.2017 10:40 12,1 C 15,0 C 13,9 C 94 % 0 lf 1013,6 hPa 0,0 l/m 0 min 0 min 102 W/m 16,7 km/h (3 Bft) 97,83 %
07.05.2017 10:42 12,1 C 15,0 C 13,9 C 94 % 0 lf 1013,6 hPa 0,0 l/m 0 min 0 min 104 W/m 14,6 km/h (3 Bft) 93,62 %
07.05.2017 10:44 12,2 C 15,0 C 13,9 C 94 % 0 lf 1013,6 hPa 0,0 l/m 0 min 0 min 104 W/m 14,6 km/h (3 Bft) 100,00 %
07.05.2017 10:46 12,2 C 15,0 C 13,9 C 93 % 0 lf 1013,6 hPa 0,0 l/m 0 min 0 min 100 W/m 12,6 km/h (3 Bft) 100,00 %
07.05.2017 10:48 12,2 C 14,4 C 13,9 C 93 % 0 lf 1013,6 hPa 0,0 l/m 0 min 0 min 102 W/m 16,7 km/h (3 Bft) 95,74 %
07.05.2017 10:50 12,2 C 15,0 C 13,9 C 93 % 0 lf 1013,6 hPa 0,0 l/m 0 min 0 min 115 W/m 10,5 km/h (2 Bft) 100,00 %
07.05.2017 10:52 12,3 C 15,0 C 13,9 C 93 % 0 lf 1013,6 hPa 0,0 l/m 0 min 0 min 142 W/m 16,7 km/h (3 Bft) 100,00 %
07.05.2017 10:54 12,3 C 16,1 C 14,4 C 93 % 0 lf 1013,7 hPa 0,0 l/m 0 min 0 min 164 W/m 14,6 km/h (3 Bft) 100,00 %
07.05.2017 10:56 12,3 C 16,7 C 15,0 C 93 % 0 lf 1013,6 hPa 0,0 l/m 0 min 0 min 171 W/m 10,5 km/h (2 Bft) 97,87 %
07.05.2017 10:58 12,4 C 16,7 C 15,6 C 93 % 0 lf 1013,7 hPa 0,0 l/m 0 min 0 min 166 W/m 14,6 km/h (3 Bft) 95,74 %
07.05.2017 11:00 12,4 C 16,7 C 15,6 C 93 % 0 lf 1013,6 hPa 0,0 l/m 0 min 0 min 182 W/m 18,8 km/h (3 Bft) 97,87 %
07.05.2017 11:02 12,5 C 16,7 C 15,0 C 93 % 0 lf 1013,7 hPa 0,0 l/m 0 min 0 min 168 W/m 20,9 km/h (4 Bft) 97,87 %
07.05.2017 11:04 12,6 C 16,7 C 15,6 C 93 % 0 lf 1013,7 hPa 0,0 l/m 0 min 0 min 190 W/m 12,6 km/h (3 Bft) 95,65 %
07.05.2017 11:06 12,6 C 17,8 C 15,6 C 93 % 0 lf 1013,7 hPa 0,0 l/m 0 min 0 min 209 W/m 14,6 km/h (3 Bft) 100,00 %
07.05.2017 11:08 12,7 C 17,8 C 15,6 C 93 % 0 lf 1013,7 hPa 0,0 l/m 0 min 0 min 207 W/m 16,7 km/h (3 Bft) 97,87 %
07.05.2017 11:10 12,7 C 18,3 C 15,6 C 93 % 0 lf 1013,7 hPa 0,0 l/m 0 min 0 min 187 W/m 18,8 km/h (3 Bft) 97,87 %
07.05.2017 11:12 12,8 C 17,8 C 15,6 C 92 % 0 lf 1013,7 hPa 0,0 l/m 0 min 0 min 197 W/m 14,6 km/h (3 Bft) 95,74 %
07.05.2017 11:14 12,8 C 17,8 C 15,6 C 92 % 0 lf 1013,7 hPa 0,0 l/m 0 min 0 min 170 W/m 14,6 km/h (3 Bft) 97,87 %
07.05.2017 11:16 12,9 C 17,8 C 15,6 C 92 % 0 lf 1013,7 hPa 0,0 l/m 0 min 0 min 175 W/m 16,7 km/h (3 Bft) 95,65 %
07.05.2017 11:18 13,0 C 17,8 C 16,1 C 92 % 0 lf 1013,7 hPa 0,0 l/m 0 min 0 min 184 W/m 14,6 km/h (3 Bft) 97,87 %
07.05.2017 11:20 13,1 C 18,9 C 16,7 C 92 % 0 lf 1013,7 hPa 0,0 l/m 0 min 0 min 236 W/m 14,6 km/h (3 Bft) 97,87 %
07.05.2017 11:22 13,2 C 18,9 C 16,1 C 92 % 0 lf 1013,8 hPa 0,0 l/m 0 min 0 min 204 W/m 16,7 km/h (3 Bft) 95,74 %
07.05.2017 11:24 13,2 C 18,9 C 16,1 C 92 % 0 lf 1013,8 hPa 0,0 l/m 0 min 0 min 197 W/m 12,6 km/h (3 Bft) 95,74 %
07.05.2017 11:26 13,3 C 19,4 C 16,7 C 92 % 0 lf 1013,7 hPa 0,0 l/m 0 min 0 min 203 W/m 16,7 km/h (3 Bft) 97,87 %
07.05.2017 11:28 13,3 C 20,0 C 16,7 C 91 % 0 lf 1013,8 hPa 0,0 l/m 0 min 0 min 224 W/m 18,8 km/h (3 Bft) 97,83 %
07.05.2017 11:30 13,4 C 20,6 C 17,2 C 91 % 0 lf 1013,8 hPa 0,0 l/m 0 min 0 min 254 W/m 14,6 km/h (3 Bft) 97,87 %
07.05.2017 11:32 13,5 C 20,6 C 17,2 C 91 % 0 lf 1013,9 hPa 0,0 l/m 0 min 0 min 290 W/m 18,8 km/h (3 Bft) 91,49 %
07.05.2017 11:34 13,6 C 22,2 C 18,3 C 91 % 0 lf 1013,9 hPa 0,0 l/m 0 min 0 min 278 W/m 12,6 km/h (3 Bft) 95,74 %
07.05.2017 11:36 13,7 C 21,7 C 18,3 C 91 % 0 lf 1013,9 hPa 0,0 l/m 2 min 0 min 393 W/m 16,7 km/h (3 Bft) 100,00 %
07.05.2017 11:38 13,8 C 21,7 C 18,9 C 91 % 0 lf 1013,9 hPa 0,0 l/m 0 min 0 min 297 W/m 20,9 km/h (4 Bft) 100,00 %
07.05.2017 11:40 13,9 C 20,6 C 17,8 C 91 % 0 lf 1014,0 hPa 0,0 l/m 0 min 0 min 222 W/m 18,8 km/h (3 Bft) 95,74 %
07.05.2017 11:42 13,9 C 19,4 C 17,2 C 90 % 0 lf 1013,9 hPa 0,0 l/m 0 min 0 min 199 W/m 23,0 km/h (4 Bft) 100,00 %
07.05.2017 11:44 14,1 C 20,0 C 17,2 C 89 % 0 lf 1014,0 hPa 0,0 l/m 0 min 0 min 223 W/m 14,6 km/h (3 Bft) 100,00 %
07.05.2017 11:46 14,2 C 20,6 C 17,8 C 89 % 0 lf 1014,0 hPa 0,0 l/m 0 min 0 min 229 W/m 16,7 km/h (3 Bft) 97,87 %
07.05.2017 11:48 14,2 C 20,6 C 17,2 C 89 % 0 lf 1014,0 hPa 0,0 l/m 0 min 0 min 262 W/m 20,9 km/h (4 Bft) 100,00 %
07.05.2017 11:50 14,2 C 20,6 C 17,8 C 89 % 0 lf 1014,0 hPa 0,0 l/m 0 min 0 min 248 W/m 18,8 km/h (3 Bft) 97,83 %
07.05.2017 11:52 14,3 C 21,1 C 18,3 C 89 % 0 lf 1014,0 hPa 0,0 l/m 0 min 0 min 248 W/m 14,6 km/h (3 Bft) 97,87 %
07.05.2017 11:54 14,5 C 20,6 C 17,8 C 88 % 0 lf 1014,0 hPa 0,0 l/m 0 min 0 min 241 W/m 23,0 km/h (4 Bft) 97,87 %
07.05.2017 11:56 14,6 C 21,7 C 18,3 C 88 % 0 lf 1014,0 hPa 0,0 l/m 0 min 0 min 251 W/m 16,7 km/h (3 Bft) 100,00 %
07.05.2017 11:58 14,7 C 23,3 C 19,4 C 88 % 0 lf 1014,0 hPa 0,0 l/m 0 min 0 min 348 W/m 10,5 km/h (2 Bft) 97,87 %
07.05.2017 12:00 14,8 C 24,4 C 20,0 C 88 % 0 lf 1014,0 hPa 0,0 l/m 2 min 0 min 430 W/m 18,8 km/h (3 Bft) 97,87 %
07.05.2017 12:02 14,9 C 24,4 C 20,0 C 87 % 0 lf 1014,0 hPa 0,0 l/m 0 min 0 min 357 W/m 18,8 km/h (3 Bft) 100,00 %
07.05.2017 12:04 15,1 C 25,0 C 20,6 C 87 % 0 lf 1014,0 hPa 0,0 l/m 0 min 0 min 359 W/m 20,9 km/h (4 Bft) 97,87 %
07.05.2017 12:06 15,2 C 24,4 C 20,0 C 86 % 0 lf 1014,1 hPa 0,0 l/m 0 min 0 min 369 W/m 18,8 km/h (3 Bft) 97,87 %
07.05.2017 12:08 15,3 C 23,3 C 19,4 C 85 % 0 lf 1014,1 hPa 0,0 l/m 2 min 0 min 403 W/m 20,9 km/h (4 Bft) 97,87 %
07.05.2017 12:10 15,3 C 22,8 C 19,4 C 85 % 0 lf 1014,1 hPa 0,0 l/m 0 min 0 min 279 W/m 14,6 km/h (3 Bft) 97,87 %
07.05.2017 12:12 15,4 C 22,8 C 19,4 C 85 % 0 lf 1014,1 hPa 0,0 l/m 0 min 0 min 254 W/m 16,7 km/h (3 Bft) 97,87 %
07.05.2017 12:14 15,6 C 22,8 C 19,4 C 85 % 0 lf 1014,1 hPa 0,0 l/m 0 min 0 min 315 W/m 20,9 km/h (4 Bft) 95,65 %
07.05.2017 12:16 15,6 C 23,3 C 19,4 C 84 % 0 lf 1014,0 hPa 0,0 l/m 0 min 0 min 382 W/m 16,7 km/h (3 Bft) 97,87 %
07.05.2017 12:18 15,7 C 22,2 C 18,9 C 84 % 0 lf 1014,2 hPa 0,0 l/m 0 min 0 min 345 W/m 25,1 km/h (4 Bft) 97,87 %
07.05.2017 12:20 15,7 C 22,2 C 18,9 C 83 % 0 lf 1014,1 hPa 0,0 l/m 0 min 0 min 273 W/m 14,6 km/h (3 Bft) 95,74 %
07.05.2017 12:22 15,8 C 23,9 C 20,0 C 83 % 0 lf 1014,1 hPa 0,0 l/m 0 min 0 min 335 W/m 14,6 km/h (3 Bft) 97,87 %
07.05.2017 12:24 15,9 C 22,8 C 19,4 C 83 % 0 lf 1014,2 hPa 0,0 l/m 2 min 0 min 408 W/m 23,0 km/h (4 Bft) 95,74 %
07.05.2017 12:26 15,9 C 22,2 C 18,9 C 83 % 0 lf 1014,1 hPa 0,0 l/m 0 min 0 min 276 W/m 16,7 km/h (3 Bft) 93,48 %
07.05.2017 12:28 16,0 C 22,8 C 19,4 C 83 % 0 lf 1014,1 hPa 0,0 l/m 0 min 0 min 329 W/m 16,7 km/h (3 Bft) 93,62 %
07.05.2017 12:30 16,1 C 23,3 C 20,0 C 83 % 0 lf 1014,1 hPa 0,0 l/m 0 min 0 min 297 W/m 14,6 km/h (3 Bft) 93,62 %
07.05.2017 12:32 16,1 C 22,2 C 18,9 C 82 % 0 lf 1014,1 hPa 0,0 l/m 0 min 0 min 356 W/m 20,9 km/h (4 Bft) 95,74 %
07.05.2017 12:34 16,2 C 21,1 C 18,9 C 82 % 0 lf 1014,1 hPa 0,0 l/m 0 min 0 min 206 W/m 14,6 km/h (3 Bft) 93,62 %
07.05.2017 12:36 16,2 C 21,1 C 18,9 C 82 % 0 lf 1014,1 hPa 0,0 l/m 0 min 0 min 220 W/m 12,6 km/h (3 Bft) 93,62 %
07.05.2017 12:38 16,2 C 21,1 C 18,3 C 82 % 0 lf 1014,1 hPa 0,0 l/m 0 min 0 min 182 W/m 18,8 km/h (3 Bft) 95,65 %
07.05.2017 12:40 16,2 C 21,1 C 18,3 C 81 % 0 lf 1014,1 hPa 0,0 l/m 0 min 0 min 229 W/m 18,8 km/h (3 Bft) 95,74 %
07.05.2017 12:42 16,3 C 21,7 C 19,4 C 82 % 0 lf 1014,1 hPa 0,0 l/m 0 min 0 min 260 W/m 14,6 km/h (3 Bft) 93,62 %
07.05.2017 12:44 16,3 C 21,7 C 19,4 C 82 % 0 lf 1014,1 hPa 0,0 l/m 0 min 0 min 247 W/m 20,9 km/h (4 Bft) 95,74 %
07.05.2017 12:46 16,4 C 21,1 C 18,9 C 81 % 0 lf 1014,1 hPa 0,0 l/m 0 min 0 min 221 W/m 20,9 km/h (4 Bft) 91,49 %
07.05.2017 12:48 16,4 C 21,1 C 18,9 C 81 % 0 lf 1014,1 hPa 0,0 l/m 0 min 0 min 229 W/m 18,8 km/h (3 Bft) 95,74 %
07.05.2017 12:50 16,4 C 20,6 C 18,9 C 80 % 0 lf 1014,1 hPa 0,0 l/m 0 min 0 min 219 W/m 18,8 km/h (3 Bft) 93,48 %
07.05.2017 12:52 16,4 C 21,1 C 18,9 C 80 % 0 lf 1014,2 hPa 0,0 l/m 0 min 0 min 252 W/m 23,0 km/h (4 Bft) 93,62 %
07.05.2017 12:54 16,4 C 21,1 C 18,9 C 79 % 0 lf 1014,1 hPa 0,0 l/m 0 min 0 min 312 W/m 25,1 km/h (4 Bft) 95,74 %
07.05.2017 12:56 16,5 C 22,2 C 19,4 C 79 % 0 lf 1014,2 hPa 0,0 l/m 0 min 0 min 377 W/m 23,0 km/h (4 Bft) 95,74 %
07.05.2017 12:58 16,6 C 22,2 C 19,4 C 79 % 0 lf 1014,1 hPa 0,0 l/m 0 min 0 min 310 W/m 27,2 km/h (4 Bft) 93,62 %
07.05.2017 13:00 16,6 C 21,1 C 18,9 C 78 % 0 lf 1014,2 hPa 0,0 l/m 0 min 0 min 254 W/m 20,9 km/h (4 Bft) 93,48 %
07.05.2017 13:02 16,7 C 21,1 C 18,9 C 78 % 0 lf 1014,1 hPa 0,0 l/m 0 min 0 min 201 W/m 10,5 km/h (2 Bft) 91,49 %
07.05.2017 13:04 16,7 C 20,6 C 18,3 C 78 % 0 lf 1014,1 hPa 0,0 l/m 0 min 0 min 162 W/m 25,1 km/h (4 Bft) 91,49 %
07.05.2017 13:06 16,7 C 20,0 C 18,3 C 79 % 0 lf 1014,1 hPa 0,0 l/m 0 min 0 min 156 W/m 16,7 km/h (3 Bft) 95,74 %
07.05.2017 13:08 16,7 C 19,4 C 18,3 C 79 % 0 lf 1014,2 hPa 0,0 l/m 0 min 0 min 161 W/m 27,2 km/h (4 Bft) 97,87 %
07.05.2017 13:10 16,7 C 20,0 C 18,3 C 78 % 0 lf 1014,1 hPa 0,0 l/m 0 min 0 min 178 W/m 18,8 km/h (3 Bft) 97,87 %
07.05.2017 13:12 16,8 C 20,6 C 18,9 C 79 % 0 lf 1014,1 hPa 0,0 l/m 0 min 0 min 210 W/m 18,8 km/h (3 Bft) 95,65 %
07.05.2017 13:14 16,8 C 20,0 C 18,9 C 78 % 0 lf 1014,2 hPa 0,0 l/m 0 min 0 min 202 W/m 23,0 km/h (4 Bft) 95,74 %
07.05.2017 13:16 16,8 C 20,6 C 18,9 C 78 % 0 lf 1014,2 hPa 0,0 l/m 0 min 0 min 216 W/m 18,8 km/h (3 Bft) 95,74 %
07.05.2017 13:18 16,8 C 20,6 C 18,9 C 77 % 0 lf 1014,1 hPa 0,0 l/m 0 min 0 min 221 W/m 23,0 km/h (4 Bft) 95,74 %
07.05.2017 13:20 16,8 C 20,0 C 18,9 C 77 % 0 lf 1014,2 hPa 0,0 l/m 0 min 0 min 200 W/m 23,0 km/h (4 Bft) 93,62 %
07.05.2017 13:22 16,8 C 20,0 C 18,3 C 77 % 0 lf 1014,1 hPa 0,0 l/m 0 min 0 min 203 W/m 18,8 km/h (3 Bft) 93,62 %
07.05.2017 13:24 16,8 C 20,0 C 18,3 C 77 % 0 lf 1014,2 hPa 0,0 l/m 0 min 0 min 202 W/m 25,1 km/h (4 Bft) 95,65 %
07.05.2017 13:26 16,8 C 20,0 C 18,3 C 76 % 0 lf 1014,1 hPa 0,0 l/m 0 min 0 min 198 W/m 18,8 km/h (3 Bft) 93,62 %
07.05.2017 13:28 16,8 C 20,0 C 18,3 C 76 % 0 lf 1014,2 hPa 0,0 l/m 0 min 0 min 192 W/m 14,6 km/h (3 Bft) 95,74 %
07.05.2017 13:30 16,9 C 20,0 C 18,9 C 76 % 0 lf 1014,1 hPa 0,0 l/m 0 min 0 min 175 W/m 23,0 km/h (4 Bft) 95,74 %
07.05.2017 13:32 16,9 C 20,0 C 18,3 C 76 % 0 lf 1014,1 hPa 0,0 l/m 0 min 0 min 177 W/m 20,9 km/h (4 Bft) 95,74 %
07.05.2017 13:34 16,9 C 19,4 C 18,3 C 76 % 0 lf 1014,1 hPa 0,0 l/m 0 min 0 min 184 W/m 25,1 km/h (4 Bft) 95,74 %
07.05.2017 13:36 16,9 C 20,0 C 18,3 C 76 % 0 lf 1014,2 hPa 0,0 l/m 0 min 0 min 202 W/m 16,7 km/h (3 Bft) 95,65 %
07.05.2017 13:38 16,9 C 20,6 C 18,9 C 77 % 0 lf 1014,2 hPa 0,0 l/m 0 min 0 min 211 W/m 20,9 km/h (4 Bft) 97,87 %
07.05.2017 13:40 16,9 C 20,6 C 18,3 C 76 % 0 lf 1014,1 hPa 0,0 l/m 0 min 0 min 182 W/m 23,0 km/h (4 Bft) 95,74 %
07.05.2017 13:42 16,9 C 20,6 C 18,3 C 76 % 0 lf 1014,1 hPa 0,0 l/m 0 min 0 min 183 W/m 20,9 km/h (4 Bft) 93,62 %
07.05.2017 13:44 16,9 C 20,6 C 18,3 C 76 % 0 lf 1014,2 hPa 0,0 l/m 0 min 0 min 196 W/m 16,7 km/h (3 Bft) 95,74 %
07.05.2017 13:46 17,0 C 22,2 C 18,9 C 76 % 0 lf 1014,2 hPa 0,0 l/m 0 min 0 min 319 W/m 20,9 km/h (4 Bft) 95,74 %
07.05.2017 13:48 17,1 C 24,4 C 20,0 C 76 % 0 lf 1014,1 hPa 0,0 l/m 2 min 0 min 462 W/m 10,5 km/h (2 Bft) 95,65 %
07.05.2017 13:50 17,1 C 26,1 C 20,6 C 76 % 0 lf 1014,2 hPa 0,0 l/m 2 min 0 min 499 W/m 18,8 km/h (3 Bft) 95,74 %
07.05.2017 13:52 17,2 C 24,4 C 20,0 C 76 % 0 lf 1014,1 hPa 0,0 l/m 2 min 0 min 429 W/m 20,9 km/h (4 Bft) 95,74 %
07.05.2017 13:54 17,3 C 23,9 C 20,0 C 76 % 0 lf 1014,2 hPa 0,0 l/m 0 min 0 min 202 W/m 14,6 km/h (3 Bft) 91,49 %
07.05.2017 13:56 17,4 C 22,2 C 19,4 C 76 % 0 lf 1014,2 hPa 0,0 l/m 0 min 0 min 142 W/m 23,0 km/h (4 Bft) 100,00 %
07.05.2017 13:58 17,4 C 21,1 C 19,4 C 76 % 0 lf 1014,2 hPa 0,0 l/m 0 min 0 min 135 W/m 20,9 km/h (4 Bft) 100,00 %
07.05.2017 14:00 17,4 C 20,0 C 18,9 C 76 % 0 lf 1014,3 hPa 0,0 l/m 0 min 0 min 144 W/m 23,0 km/h (4 Bft) 100,00 %
07.05.2017 14:02 17,4 C 20,0 C 18,9 C 76 % 0 lf 1014,3 hPa 0,0 l/m 0 min 0 min 156 W/m 18,8 km/h (3 Bft) 95,74 %
07.05.2017 14:04 17,4 C 20,0 C 18,9 C 75 % 0 lf 1014,3 hPa 0,0 l/m 0 min 0 min 192 W/m 18,8 km/h (3 Bft) 97,87 %
07.05.2017 14:06 17,4 C 20,6 C 19,4 C 75 % 0 lf 1014,2 hPa 0,0 l/m 0 min 0 min 225 W/m 20,9 km/h (4 Bft) 100,00 %
07.05.2017 14:08 17,4 C 21,1 C 20,0 C 76 % 0 lf 1014,2 hPa 0,0 l/m 0 min 0 min 255 W/m 18,8 km/h (3 Bft) 100,00 %
07.05.2017 14:10 17,4 C 21,1 C 20,0 C 76 % 0 lf 1014,2 hPa 0,0 l/m 0 min 0 min 257 W/m 25,1 km/h (4 Bft) 100,00 %
07.05.2017 14:12 17,4 C 22,2 C 20,6 C 75 % 0 lf 1014,3 hPa 0,0 l/m 0 min 0 min 267 W/m 20,9 km/h (4 Bft) 95,65 %
07.05.2017 14:14 17,4 C 22,2 C 20,6 C 75 % 0 lf 1014,3 hPa 0,0 l/m 0 min 0 min 284 W/m 20,9 km/h (4 Bft) 100,00 %
07.05.2017 14:16 17,4 C 22,2 C 20,6 C 75 % 0 lf 1014,2 hPa 0,0 l/m 0 min 0 min 270 W/m 18,8 km/h (3 Bft) 100,00 %
07.05.2017 14:18 17,4 C 22,8 C 21,1 C 74 % 0 lf 1014,2 hPa 0,0 l/m 0 min 0 min 283 W/m 18,8 km/h (3 Bft) 95,74 %
07.05.2017 14:20 17,5 C 23,9 C 22,2 C 75 % 0 lf 1014,2 hPa 0,0 l/m 0 min 0 min 340 W/m 20,9 km/h (4 Bft) 100,00 %
07.05.2017 14:22 17,5 C 24,4 C 22,8 C 74 % 0 lf 1014,2 hPa 0,0 l/m 0 min 0 min 389 W/m 16,7 km/h (3 Bft) 100,00 %
07.05.2017 14:24 17,6 C 25,0 C 22,8 C 73 % 0 lf 1014,2 hPa 0,0 l/m 2 min 0 min 413 W/m 16,7 km/h (3 Bft) 100,00 %
07.05.2017 14:26 17,6 C 23,9 C 22,2 C 72 % 0 lf 1014,2 hPa 0,0 l/m 0 min 0 min 256 W/m 18,8 km/h (3 Bft) 100,00 %
07.05.2017 14:28 17,7 C 23,3 C 21,7 C 73 % 0 lf 1014,2 hPa 0,0 l/m 0 min 0 min 217 W/m 12,6 km/h (3 Bft) 100,00 %
07.05.2017 14:30 17,7 C 22,2 C 21,1 C 73 % 0 lf 1014,2 hPa 0,0 l/m 0 min 0 min 197 W/m 16,7 km/h (3 Bft) 93,62 %
07.05.2017 14:32 17,8 C 21,7 C 20,6 C 73 % 0 lf 1014,2 hPa 0,0 l/m 0 min 0 min 179 W/m 18,8 km/h (3 Bft) 100,00 %
07.05.2017 14:34 17,8 C 21,7 C 20,0 C 73 % 0 lf 1014,2 hPa 0,0 l/m 0 min 0 min 178 W/m 20,9 km/h (4 Bft) 97,83 %
07.05.2017 14:36 17,8 C 21,1 C 19,4 C 72 % 0 lf 1014,2 hPa 0,0 l/m 0 min 0 min 179 W/m 20,9 km/h (4 Bft) 100,00 %
07.05.2017 14:38 17,7 C 21,1 C 19,4 C 72 % 0 lf 1014,2 hPa 0,0 l/m 0 min 0 min 185 W/m 18,8 km/h (3 Bft) 100,00 %
07.05.2017 14:40 17,7 C 21,1 C 19,4 C 72 % 0 lf 1014,1 hPa 0,0 l/m 0 min 0 min 195 W/m 12,6 km/h (3 Bft) 97,87 %
07.05.2017 14:42 17,7 C 21,7 C 19,4 C 72 % 0 lf 1014,2 hPa 0,0 l/m 0 min 0 min 208 W/m 12,6 km/h (3 Bft) 100,00 %
07.05.2017 14:44 17,7 C 21,1 C 19,4 C 72 % 0 lf 1014,2 hPa 0,0 l/m 0 min 0 min 205 W/m 18,8 km/h (3 Bft) 93,62 %
07.05.2017 14:46 17,7 C 21,1 C 19,4 C 71 % 0 lf 1014,2 hPa 0,0 l/m 0 min 0 min 200 W/m 16,7 km/h (3 Bft) 95,74 %
07.05.2017 14:48 17,7 C 21,1 C 18,9 C 72 % 0 lf 1014,2 hPa 0,0 l/m 0 min 0 min 203 W/m 18,8 km/h (3 Bft) 100,00 %
07.05.2017 14:50 17,7 C 21,1 C 19,4 C 72 % 0 lf 1014,2 hPa 0,0 l/m 0 min 0 min 211 W/m 16,7 km/h (3 Bft) 100,00 %
07.05.2017 14:52 17,7 C 22,2 C 20,0 C 72 % 0 lf 1014,2 hPa 0,0 l/m 0 min 0 min 253 W/m 14,6 km/h (3 Bft) 100,00 %
07.05.2017 14:54 17,7 C 22,8 C 20,6 C 72 % 0 lf 1014,2 hPa 0,0 l/m 0 min 0 min 270 W/m 14,6 km/h (3 Bft) 97,87 %
07.05.2017 14:56 17,7 C 22,8 C 21,1 C 73 % 0 lf 1014,2 hPa 0,0 l/m 0 min 0 min 294 W/m 18,8 km/h (3 Bft) 97,87 %
07.05.2017 14:58 17,7 C 23,3 C 21,1 C 74 % 0 lf 1014,2 hPa 0,0 l/m 0 min 0 min 263 W/m 14,6 km/h (3 Bft) 95,65 %
07.05.2017 15:00 17,8 C 23,3 C 21,1 C 74 % 0 lf 1014,2 hPa 0,0 l/m 0 min 0 min 258 W/m 16,7 km/h (3 Bft) 97,87 %
07.05.2017 15:02 17,9 C 23,3 C 21,7 C 73 % 0 lf 1014,2 hPa 0,0 l/m 0 min 0 min 267 W/m 25,1 km/h (4 Bft) 95,74 %
07.05.2017 15:04 17,9 C 22,8 C 21,1 C 72 % 0 lf 1014,2 hPa 0,0 l/m 0 min 0 min 258 W/m 18,8 km/h (3 Bft) 93,62 %
07.05.2017 15:06 17,9 C 23,3 C 21,1 C 72 % 0 lf 1014,2 hPa 0,0 l/m 0 min 0 min 236 W/m 16,7 km/h (3 Bft) 95,74 %
07.05.2017 15:08 18,0 C 24,4 C 22,2 C 73 % 0 lf 1014,2 hPa 0,0 l/m 0 min 0 min 329 W/m 14,6 km/h (3 Bft) 97,87 %
07.05.2017 15:10 18,1 C 25,6 C 23,3 C 73 % 0 lf 1014,1 hPa 0,0 l/m 2 min 0 min 376 W/m 18,8 km/h (3 Bft) 95,65 %
07.05.2017 15:12 18,1 C 25,0 C 23,3 C 73 % 0 lf 1014,2 hPa 0,0 l/m 0 min 0 min 317 W/m 16,7 km/h (3 Bft) 97,87 %
07.05.2017 15:14 18,2 C 24,4 C 22,8 C 71 % 0 lf 1014,2 hPa 0,0 l/m 0 min 0 min 282 W/m 16,7 km/h (3 Bft) 93,62 %
07.05.2017 15:16 18,2 C 24,4 C 22,8 C 70 % 0 lf 1014,2 hPa 0,0 l/m 0 min 0 min 263 W/m 16,7 km/h (3 Bft) 97,87 %
07.05.2017 15:18 18,3 C 23,9 C 21,7 C 70 % 0 lf 1014,2 hPa 0,0 l/m 0 min 0 min 238 W/m 16,7 km/h (3 Bft) 97,87 %
07.05.2017 15:22 18,3 C 23,9 C 22,2 C 71 % 0 lf 1014,2 hPa 0,0 l/m 0 min 0 min 244 W/m 16,7 km/h (3 Bft) 95,35 %
07.05.2017 15:24 18,4 C 23,3 C 21,7 C 71 % 0 lf 1014,1 hPa 0,0 l/m 0 min 0 min 209 W/m 16,7 km/h (3 Bft) 93,48 %
07.05.2017 15:26 18,4 C 23,3 C 22,2 C 70 % 0 lf 1014,2 hPa 0,0 l/m 0 min 0 min 244 W/m 16,7 km/h (3 Bft) 89,36 %
07.05.2017 15:28 18,4 C 23,3 C 21,7 C 71 % 0 lf 1014,2 hPa 0,0 l/m 0 min 0 min 211 W/m 14,6 km/h (3 Bft) 95,74 %
07.05.2017 15:30 18,5 C 22,8 C 21,1 C 71 % 0 lf 1014,3 hPa 0,0 l/m 0 min 0 min 118 W/m 18,8 km/h (3 Bft) 93,62 %
07.05.2017 15:32 18,5 C 21,1 C 19,4 C 70 % 0 lf 1014,3 hPa 0,0 l/m 0 min 0 min 83 W/m 29,3 km/h (5 Bft) 93,62 %
07.05.2017 15:34 18,4 C 20,0 C 18,3 C 70 % 0 lf 1014,3 hPa 0,0 l/m 0 min 0 min 70 W/m 27,2 km/h (4 Bft) 93,62 %
07.05.2017 15:36 18,4 C 19,4 C 18,3 C 70 % 0 lf 1014,4 hPa 0,0 l/m 0 min 0 min 66 W/m 25,1 km/h (4 Bft) 91,30 %
07.05.2017 15:38 18,3 C 18,9 C 17,8 C 70 % 0 lf 1014,4 hPa 0,0 l/m 0 min 0 min 67 W/m 25,1 km/h (4 Bft) 93,62 %
07.05.2017 15:40 18,2 C 18,9 C 17,2 C 70 % 0 lf 1014,4 hPa 0,0 l/m 0 min 0 min 67 W/m 18,8 km/h (3 Bft) 95,74 %
07.05.2017 15:42 18,1 C 18,3 C 17,2 C 70 % 0 lf 1014,4 hPa 0,0 l/m 0 min 0 min 64 W/m 18,8 km/h (3 Bft) 95,74 %
07.05.2017 15:44 18,0 C 18,3 C 16,7 C 70 % 0 lf 1014,4 hPa 0,0 l/m 0 min 0 min 63 W/m 12,6 km/h (3 Bft) 95,74 %
07.05.2017 15:46 17,9 C 18,3 C 16,7 C 71 % 0 lf 1014,3 hPa 0,0 l/m 0 min 0 min 60 W/m 23,0 km/h (4 Bft) 93,48 %
07.05.2017 15:48 17,8 C 18,3 C 16,7 C 71 % 0 lf 1014,3 hPa 0,0 l/m 0 min 0 min 54 W/m 16,7 km/h (3 Bft) 95,74 %
07.05.2017 15:50 17,7 C 17,8 C 16,1 C 71 % 0 lf 1014,4 hPa 0,0 l/m 0 min 0 min 50 W/m 16,7 km/h (3 Bft) 95,74 %
07.05.2017 15:52 17,6 C 17,8 C 16,1 C 71 % 0 lf 1014,3 hPa 0,0 l/m 0 min 0 min 49 W/m 16,7 km/h (3 Bft) 93,62 %
07.05.2017 15:54 17,5 C 17,8 C 16,1 C 71 % 0 lf 1014,3 hPa 0,0 l/m 0 min 0 min 47 W/m 14,6 km/h (3 Bft) 95,74 %
07.05.2017 15:56 17,4 C 17,2 C 16,1 C 71 % 0 lf 1014,4 hPa 0,0 l/m 0 min 0 min 46 W/m 20,9 km/h (4 Bft) 93,62 %
07.05.2017 15:58 17,3 C 17,2 C 15,6 C 71 % 0 lf 1014,4 hPa 0,0 l/m 0 min 0 min 44 W/m 18,8 km/h (3 Bft) 91,49 %
07.05.2017 16:00 17,2 C 17,2 C 15,6 C 71 % 0 lf 1014,4 hPa 0,0 l/m 0 min 0 min 44 W/m 20,9 km/h (4 Bft) 95,65 %
07.05.2017 16:02 17,1 C 17,2 C 15,6 C 71 % 0 lf 1014,4 hPa 0,0 l/m 0 min 0 min 45 W/m 12,6 km/h (3 Bft) 100,00 %
07.05.2017 16:04 17,0 C 17,2 C 15,6 C 72 % 0 lf 1014,4 hPa 0,0 l/m 0 min 0 min 46 W/m 18,8 km/h (3 Bft) 97,87 %
07.05.2017 16:06 16,9 C 17,2 C 15,6 C 72 % 0 lf 1014,4 hPa 0,0 l/m 0 min 0 min 47 W/m 23,0 km/h (4 Bft) 95,74 %
07.05.2017 16:08 16,8 C 17,2 C 15,6 C 72 % 0 lf 1014,4 hPa 0,0 l/m 0 min 0 min 48 W/m 16,7 km/h (3 Bft) 93,62 %
07.05.2017 16:10 16,8 C 17,2 C 15,6 C 73 % 0 lf 1014,3 hPa 0,0 l/m 0 min 0 min 49 W/m 16,7 km/h (3 Bft) 93,48 %
07.05.2017 16:12 16,7 C 17,2 C 15,6 C 73 % 0 lf 1014,4 hPa 0,0 l/m 0 min 0 min 51 W/m 12,6 km/h (3 Bft) 93,62 %
07.05.2017 16:14 16,7 C 17,2 C 15,6 C 73 % 0 lf 1014,4 hPa 0,0 l/m 0 min 0 min 52 W/m 18,8 km/h (3 Bft) 95,74 %
07.05.2017 16:16 16,6 C 17,2 C 16,1 C 73 % 0 lf 1014,4 hPa 0,0 l/m 0 min 0 min 53 W/m 16,7 km/h (3 Bft) 95,74 %
07.05.2017 16:18 16,6 C 17,2 C 16,1 C 73 % 0 lf 1014,4 hPa 0,0 l/m 0 min 0 min 53 W/m 14,6 km/h (3 Bft) 95,74 %
07.05.2017 16:20 16,6 C 17,2 C 15,6 C 73 % 0 lf 1014,3 hPa 0,0 l/m 0 min 0 min 54 W/m 14,6 km/h (3 Bft) 97,87 %
07.05.2017 16:22 16,6 C 17,2 C 15,6 C 74 % 0 lf 1014,4 hPa 0,0 l/m 0 min 0 min 56 W/m 12,6 km/h (3 Bft) 97,83 %
07.05.2017 16:24 16,5 C 17,2 C 15,6 C 74 % 0 lf 1014,3 hPa 0,0 l/m 0 min 0 min 60 W/m 18,8 km/h (3 Bft) 97,87 %
07.05.2017 16:26 16,5 C 17,2 C 16,1 C 74 % 0 lf 1014,4 hPa 0,0 l/m 0 min 0 min 62 W/m 14,6 km/h (3 Bft) 97,87 %
07.05.2017 16:28 16,4 C 17,2 C 16,1 C 75 % 0 lf 1014,4 hPa 0,0 l/m 0 min 0 min 63 W/m 25,1 km/h (4 Bft) 97,87 %
07.05.2017 16:30 16,4 C 17,2 C 16,1 C 75 % 0 lf 1014,4 hPa 0,0 l/m 0 min 0 min 65 W/m 10,5 km/h (2 Bft) 95,74 %
07.05.2017 16:32 16,4 C 17,2 C 16,1 C 75 % 0 lf 1014,4 hPa 0,0 l/m 0 min 0 min 65 W/m 14,6 km/h (3 Bft) 95,74 %
07.05.2017 16:34 16,4 C 17,2 C 16,1 C 75 % 0 lf 1014,4 hPa 0,0 l/m 0 min 0 min 63 W/m 18,8 km/h (3 Bft) 97,83 %
07.05.2017 16:36 16,4 C 17,2 C 16,1 C 75 % 0 lf 1014,4 hPa 0,0 l/m 0 min 0 min 62 W/m 18,8 km/h (3 Bft) 95,74 %
07.05.2017 16:38 16,4 C 17,2 C 16,1 C 76 % 0 lf 1014,4 hPa 0,0 l/m 0 min 0 min 62 W/m 10,5 km/h (2 Bft) 97,87 %
07.05.2017 16:40 16,4 C 17,2 C 16,1 C 76 % 0 lf 1014,4 hPa 0,0 l/m 0 min 0 min 62 W/m 14,6 km/h (3 Bft) 97,87 %
07.05.2017 16:42 16,4 C 17,2 C 16,1 C 76 % 0 lf 1014,4 hPa 0,0 l/m 0 min 0 min 62 W/m 12,6 km/h (3 Bft) 95,74 %
07.05.2017 16:44 16,4 C 17,2 C 16,1 C 76 % 0 lf 1014,5 hPa 0,0 l/m 0 min 0 min 62 W/m 16,7 km/h (3 Bft) 95,74 %
07.05.2017 16:46 16,3 C 17,2 C 16,1 C 75 % 0 lf 1014,4 hPa 0,0 l/m 0 min 0 min 65 W/m 23,0 km/h (4 Bft) 97,83 %
07.05.2017 16:48 16,4 C 17,2 C 16,1 C 75 % 0 lf 1014,4 hPa 0,0 l/m 0 min 0 min 67 W/m 18,8 km/h (3 Bft) 95,74 %
07.05.2017 16:50 16,3 C 17,2 C 16,1 C 75 % 0 lf 1014,4 hPa 0,0 l/m 0 min 0 min 69 W/m 12,6 km/h (3 Bft) 94,00 %
07.05.2017 16:52 16,3 C 17,2 C 16,1 C 75 % 0 lf 1014,4 hPa 0,0 l/m 0 min 0 min 70 W/m 16,7 km/h (3 Bft) 97,87 %
07.05.2017 16:54 16,3 C 17,2 C 16,1 C 75 % 0 lf 1014,4 hPa 0,0 l/m 0 min 0 min 73 W/m 14,6 km/h (3 Bft) 97,87 %
07.05.2017 16:56 16,3 C 17,8 C 16,7 C 75 % 0 lf 1014,4 hPa 0,0 l/m 0 min 0 min 76 W/m 18,8 km/h (3 Bft) 97,83 %
07.05.2017 16:58 16,3 C 17,8 C 16,7 C 75 % 0 lf 1014,5 hPa 0,0 l/m 0 min 0 min 77 W/m 18,8 km/h (3 Bft) 91,49 %
07.05.2017 17:00 16,3 C 17,8 C 16,7 C 75 % 0 lf 1014,5 hPa 0,0 l/m 0 min 0 min 77 W/m 16,7 km/h (3 Bft) 97,87 %
07.05.2017 17:02 16,4 C 17,8 C 16,7 C 75 % 0 lf 1014,4 hPa 0,0 l/m 0 min 0 min 70 W/m 12,6 km/h (3 Bft) 97,87 %
07.05.2017 17:04 16,4 C 17,8 C 16,7 C 75 % 0 lf 1014,5 hPa 0,0 l/m 0 min 0 min 65 W/m 16,7 km/h (3 Bft) 95,74 %
07.05.2017 17:06 16,4 C 17,8 C 16,7 C 75 % 0 lf 1014,5 hPa 0,0 l/m 0 min 0 min 71 W/m 23,0 km/h (4 Bft) 100,00 %
07.05.2017 17:08 16,4 C 17,8 C 16,7 C 75 % 0 lf 1014,5 hPa 0,0 l/m 0 min 0 min 87 W/m 20,9 km/h (4 Bft) 97,83 %
07.05.2017 17:10 16,4 C 17,8 C 16,7 C 75 % 0 lf 1014,5 hPa 0,0 l/m 0 min 0 min 93 W/m 20,9 km/h (4 Bft) 100,00 %
07.05.2017 17:12 16,4 C 17,8 C 16,7 C 76 % 0 lf 1014,5 hPa 0,0 l/m 0 min 0 min 93 W/m 25,1 km/h (4 Bft) 100,00 %
07.05.2017 17:14 16,4 C 17,8 C 16,7 C 76 % 0 lf 1014,6 hPa 0,0 l/m 0 min 0 min 97 W/m 25,1 km/h (4 Bft) 97,87 %
07.05.2017 17:16 16,4 C 17,8 C 17,2 C 76 % 0 lf 1014,5 hPa 0,0 l/m 0 min 0 min 105 W/m 20,9 km/h (4 Bft) 100,00 %
07.05.2017 17:18 16,4 C 17,8 C 17,2 C 76 % 0 lf 1014,6 hPa 0,0 l/m 0 min 0 min 113 W/m 14,6 km/h (3 Bft) 95,74 %
07.05.2017 17:20 16,4 C 17,8 C 17,2 C 75 % 0 lf 1014,6 hPa 0,0 l/m 0 min 0 min 115 W/m 20,9 km/h (4 Bft) 91,30 %
07.05.2017 17:22 16,4 C 17,8 C 16,7 C 75 % 0 lf 1014,6 hPa 0,0 l/m 0 min 0 min 116 W/m 23,0 km/h (4 Bft) 97,87 %
07.05.2017 17:24 16,4 C 18,3 C 17,2 C 75 % 0 lf 1014,6 hPa 0,0 l/m 0 min 0 min 123 W/m 20,9 km/h (4 Bft) 97,87 %
07.05.2017 17:26 16,4 C 18,3 C 17,8 C 75 % 0 lf 1014,6 hPa 0,0 l/m 0 min 0 min 136 W/m 14,6 km/h (3 Bft) 97,87 %
07.05.2017 17:28 16,4 C 18,3 C 17,2 C 75 % 0 lf 1014,5 hPa 0,0 l/m 0 min 0 min 140 W/m 14,6 km/h (3 Bft) 93,62 %
07.05.2017 17:30 16,4 C 18,9 C 17,2 C 75 % 0 lf 1014,6 hPa 0,0 l/m 0 min 0 min 127 W/m 18,8 km/h (3 Bft) 95,74 %
07.05.2017 17:32 16,4 C 18,9 C 17,8 C 75 % 0 lf 1014,6 hPa 0,0 l/m 0 min 0 min 114 W/m 14,6 km/h (3 Bft) 97,83 %
07.05.2017 17:34 16,5 C 18,9 C 17,2 C 75 % 0 lf 1014,6 hPa 0,0 l/m 0 min 0 min 103 W/m 16,7 km/h (3 Bft) 95,74 %
07.05.2017 17:36 16,4 C 18,9 C 17,2 C 75 % 0 lf 1014,6 hPa 0,0 l/m 0 min 0 min 92 W/m 10,5 km/h (2 Bft) 95,74 %
07.05.2017 17:38 16,5 C 18,3 C 17,2 C 75 % 0 lf 1014,6 hPa 0,0 l/m 0 min 0 min 84 W/m 18,8 km/h (3 Bft) 93,62 %
07.05.2017 17:40 16,5 C 18,3 C 16,7 C 75 % 0 lf 1014,6 hPa 0,0 l/m 0 min 0 min 77 W/m 18,8 km/h (3 Bft) 93,62 %
07.05.2017 17:42 16,5 C 18,3 C 16,7 C 75 % 0 lf 1014,7 hPa 0,0 l/m 0 min 0 min 73 W/m 18,8 km/h (3 Bft) 89,36 %
07.05.2017 17:44 16,4 C 17,8 C 16,7 C 75 % 0 lf 1014,6 hPa 0,0 l/m 0 min 0 min 69 W/m 12,6 km/h (3 Bft) 95,65 %
07.05.2017 17:46 16,4 C 17,8 C 16,7 C 74 % 0 lf 1014,6 hPa 0,0 l/m 0 min 0 min 66 W/m 16,7 km/h (3 Bft) 95,74 %
07.05.2017 17:48 16,4 C 17,8 C 16,1 C 74 % 0 lf 1014,6 hPa 0,0 l/m 0 min 0 min 63 W/m 23,0 km/h (4 Bft) 95,74 %
07.05.2017 17:50 16,4 C 17,2 C 16,1 C 74 % 0 lf 1014,7 hPa 0,0 l/m 0 min 0 min 60 W/m 16,7 km/h (3 Bft) 95,74 %
07.05.2017 17:52 16,4 C 17,2 C 16,1 C 74 % 0 lf 1014,7 hPa 0,0 l/m 0 min 0 min 56 W/m 14,6 km/h (3 Bft) 93,62 %
07.05.2017 17:54 16,4 C 17,2 C 15,6 C 74 % 0 lf 1014,6 hPa 0,0 l/m 0 min 0 min 54 W/m 18,8 km/h (3 Bft) 91,49 %
07.05.2017 17:56 16,3 C 17,2 C 15,6 C 74 % 0 lf 1014,7 hPa 0,0 l/m 0 min 0 min 53 W/m 14,6 km/h (3 Bft) 95,65 %
07.05.2017 17:58 16,3 C 16,7 C 15,6 C 74 % 0 lf 1014,7 hPa 0,0 l/m 0 min 0 min 50 W/m 18,8 km/h (3 Bft) 93,62 %
07.05.2017 18:00 16,3 C 16,7 C 15,6 C 74 % 0 lf 1014,7 hPa 0,0 l/m 0 min 0 min 48 W/m 14,6 km/h (3 Bft) 95,74 %
07.05.2017 18:02 16,2 C 16,7 C 15,0 C 74 % 0 lf 1014,7 hPa 0,0 l/m 0 min 0 min 47 W/m 16,7 km/h (3 Bft) 95,74 %
07.05.2017 18:04 16,2 C 16,7 C 15,0 C 74 % 0 lf 1014,7 hPa 0,0 l/m 0 min 0 min 45 W/m 18,8 km/h (3 Bft) 95,74 %
07.05.2017 18:06 16,1 C 16,7 C 15,0 C 74 % 0 lf 1014,7 hPa 0,0 l/m 0 min 0 min 44 W/m 20,9 km/h (4 Bft) 97,83 %
07.05.2017 18:08 16,1 C 16,7 C 15,0 C 75 % 0 lf 1014,7 hPa 0,0 l/m 0 min 0 min 42 W/m 8,4 km/h (2 Bft) 97,87 %
07.05.2017 18:10 16,1 C 16,7 C 15,0 C 75 % 0 lf 1014,7 hPa 0,0 l/m 0 min 0 min 40 W/m 8,4 km/h (2 Bft) 91,49 %
07.05.2017 18:12 16,0 C 16,7 C 15,0 C 75 % 0 lf 1014,7 hPa 0,0 l/m 0 min 0 min 39 W/m 12,6 km/h (3 Bft) 97,87 %
07.05.2017 18:14 16,0 C 16,7 C 15,0 C 75 % 0 lf 1014,7 hPa 0,0 l/m 0 min 0 min 39 W/m 12,6 km/h (3 Bft) 97,87 %
07.05.2017 18:16 15,9 C 16,7 C 15,0 C 76 % 0 lf 1014,7 hPa 0,0 l/m 0 min 0 min 39 W/m 10,5 km/h (2 Bft) 95,74 %
07.05.2017 18:18 15,9 C 16,7 C 15,0 C 76 % 0 lf 1014,7 hPa 0,0 l/m 0 min 0 min 39 W/m 8,4 km/h (2 Bft) 93,48 %
07.05.2017 18:20 15,9 C 16,7 C 15,0 C 76 % 0 lf 1014,8 hPa 0,0 l/m 0 min 0 min 39 W/m 12,6 km/h (3 Bft) 97,87 %
07.05.2017 18:22 15,9 C 16,1 C 15,0 C 76 % 0 lf 1014,8 hPa 0,0 l/m 0 min 0 min 39 W/m 12,6 km/h (3 Bft) 100,00 %
07.05.2017 18:24 15,9 C 16,1 C 15,0 C 76 % 0 lf 1014,8 hPa 0,0 l/m 0 min 0 min 40 W/m 10,5 km/h (2 Bft) 100,00 %
07.05.2017 18:26 15,9 C 16,7 C 15,0 C 76 % 0 lf 1014,8 hPa 0,0 l/m 0 min 0 min 41 W/m 14,6 km/h (3 Bft) 97,87 %
07.05.2017 18:28 15,8 C 16,7 C 15,0 C 77 % 0 lf 1014,8 hPa 0,0 l/m 0 min 0 min 43 W/m 8,4 km/h (2 Bft) 97,87 %
07.05.2017 18:30 15,8 C 16,7 C 15,0 C 77 % 0 lf 1014,7 hPa 0,0 l/m 0 min 0 min 45 W/m 12,6 km/h (3 Bft) 100,00 %
07.05.2017 18:32 15,8 C 16,7 C 15,0 C 77 % 0 lf 1014,8 hPa 0,0 l/m 0 min 0 min 47 W/m 12,6 km/h (3 Bft) 100,00 %
07.05.2017 18:34 15,8 C 16,7 C 15,6 C 78 % 0 lf 1014,8 hPa 0,0 l/m 0 min 0 min 49 W/m 10,5 km/h (2 Bft) 97,87 %
07.05.2017 18:36 15,8 C 16,7 C 15,6 C 78 % 0 lf 1014,8 hPa 0,0 l/m 0 min 0 min 50 W/m 12,6 km/h (3 Bft) 97,87 %
07.05.2017 18:38 15,8 C 16,7 C 15,6 C 78 % 0 lf 1014,9 hPa 0,0 l/m 0 min 0 min 53 W/m 10,5 km/h (2 Bft) 95,74 %
07.05.2017 18:40 15,8 C 16,7 C 15,6 C 78 % 0 lf 1014,9 hPa 0,0 l/m 0 min 0 min 53 W/m 12,6 km/h (3 Bft) 95,74 %
07.05.2017 18:42 15,8 C 16,7 C 15,6 C 78 % 0 lf 1014,9 hPa 0,0 l/m 0 min 0 min 53 W/m 16,7 km/h (3 Bft) 95,65 %
07.05.2017 18:44 15,8 C 16,7 C 15,6 C 78 % 0 lf 1014,8 hPa 0,0 l/m 0 min 0 min 53 W/m 12,6 km/h (3 Bft) 97,87 %
07.05.2017 18:46 15,8 C 16,7 C 15,6 C 78 % 0 lf 1014,9 hPa 0,0 l/m 0 min 0 min 49 W/m 12,6 km/h (3 Bft) 97,87 %
07.05.2017 18:48 15,8 C 16,7 C 15,6 C 78 % 0 lf 1014,9 hPa 0,0 l/m 0 min 0 min 46 W/m 10,5 km/h (2 Bft) 95,74 %
07.05.2017 18:50 15,8 C 16,7 C 15,6 C 78 % 0 lf 1014,8 hPa 0,0 l/m 0 min 0 min 45 W/m 10,5 km/h (2 Bft) 95,74 %
07.05.2017 18:52 15,8 C 16,7 C 15,6 C 78 % 0 lf 1014,9 hPa 0,0 l/m 0 min 0 min 41 W/m 12,6 km/h (3 Bft) 95,92 %
07.05.2017 18:54 15,8 C 16,7 C 15,6 C 78 % 0 lf 1014,9 hPa 0,0 l/m 0 min 0 min 39 W/m 16,7 km/h (3 Bft) 97,87 %
07.05.2017 18:56 15,8 C 16,7 C 15,0 C 78 % 0 lf 1014,9 hPa 0,0 l/m 0 min 0 min 37 W/m 16,7 km/h (3 Bft) 97,87 %
07.05.2017 18:58 15,8 C 16,7 C 15,0 C 77 % 0 lf 1014,9 hPa 0,0 l/m 0 min 0 min 37 W/m 18,8 km/h (3 Bft) 97,87 %
07.05.2017 19:00 15,8 C 16,1 C 15,0 C 77 % 0 lf 1014,9 hPa 0,0 l/m 0 min 0 min 35 W/m 16,7 km/h (3 Bft) 100,00 %
07.05.2017 19:02 15,8 C 16,1 C 15,0 C 77 % 0 lf 1014,9 hPa 0,0 l/m 0 min 0 min 34 W/m 12,6 km/h (3 Bft) 97,87 %
07.05.2017 19:04 15,8 C 16,7 C 15,0 C 77 % 0 lf 1014,9 hPa 0,0 l/m 0 min 0 min 36 W/m 12,6 km/h (3 Bft) 97,83 %
07.05.2017 19:06 15,8 C 16,1 C 15,0 C 77 % 0 lf 1015,0 hPa 0,0 l/m 0 min 0 min 37 W/m 10,5 km/h (2 Bft) 97,87 %
07.05.2017 19:08 15,8 C 16,1 C 15,0 C 77 % 0 lf 1015,0 hPa 0,0 l/m 0 min 0 min 38 W/m 20,9 km/h (4 Bft) 95,74 %
07.05.2017 19:10 15,8 C 16,1 C 15,0 C 77 % 0 lf 1015,0 hPa 0,0 l/m 0 min 0 min 40 W/m 23,0 km/h (4 Bft) 93,62 %
07.05.2017 19:12 15,8 C 16,1 C 15,0 C 77 % 0 lf 1015,0 hPa 0,0 l/m 0 min 0 min 40 W/m 12,6 km/h (3 Bft) 97,87 %
07.05.2017 19:14 15,7 C 16,1 C 15,0 C 78 % 0 lf 1015,0 hPa 0,0 l/m 0 min 0 min 40 W/m 18,8 km/h (3 Bft) 97,87 %
07.05.2017 19:16 15,7 C 16,1 C 15,0 C 78 % 0 lf 1015,0 hPa 0,0 l/m 0 min 0 min 40 W/m 14,6 km/h (3 Bft) 97,83 %
07.05.2017 19:18 15,7 C 16,1 C 15,0 C 78 % 0 lf 1015,1 hPa 0,0 l/m 0 min 0 min 39 W/m 18,8 km/h (3 Bft) 95,74 %
07.05.2017 19:20 15,7 C 16,1 C 15,0 C 78 % 0 lf 1015,1 hPa 0,0 l/m 0 min 0 min 39 W/m 18,8 km/h (3 Bft) 97,87 %
07.05.2017 19:22 15,7 C 16,1 C 15,0 C 78 % 0 lf 1015,1 hPa 0,0 l/m 0 min 0 min 37 W/m 14,6 km/h (3 Bft) 100,00 %
07.05.2017 19:24 15,7 C 16,1 C 15,0 C 78 % 0 lf 1015,1 hPa 0,0 l/m 0 min 0 min 35 W/m 16,7 km/h (3 Bft) 95,74 %
07.05.2017 19:26 15,6 C 16,1 C 14,4 C 78 % 0 lf 1015,1 hPa 0,0 l/m 0 min 0 min 33 W/m 14,6 km/h (3 Bft) 95,74 %
07.05.2017 19:28 15,6 C 16,1 C 14,4 C 78 % 0 lf 1015,1 hPa 0,0 l/m 0 min 0 min 32 W/m 16,7 km/h (3 Bft) 95,65 %
07.05.2017 19:30 15,6 C 16,1 C 14,4 C 78 % 0 lf 1015,1 hPa 0,0 l/m 0 min 0 min 29 W/m 12,6 km/h (3 Bft) 97,87 %
07.05.2017 19:32 15,6 C 15,6 C 14,4 C 78 % 0 lf 1015,1 hPa 0,0 l/m 0 min 0 min 28 W/m 14,6 km/h (3 Bft) 95,74 %
07.05.2017 19:34 15,6 C 15,6 C 14,4 C 78 % 0 lf 1015,1 hPa 0,0 l/m 0 min 0 min 28 W/m 16,7 km/h (3 Bft) 95,74 %
07.05.2017 19:36 15,6 C 15,6 C 14,4 C 78 % 0 lf 1015,1 hPa 0,0 l/m 0 min 0 min 26 W/m 12,6 km/h (3 Bft) 95,74 %
07.05.2017 19:38 15,5 C 15,6 C 14,4 C 78 % 0 lf 1015,1 hPa 0,0 l/m 0 min 0 min 24 W/m 12,6 km/h (3 Bft) 95,74 %
07.05.2017 19:40 15,5 C 15,6 C 14,4 C 78 % 0 lf 1015,2 hPa 0,0 l/m 0 min 0 min 21 W/m 18,8 km/h (3 Bft) 95,65 %
07.05.2017 19:42 15,4 C 15,6 C 14,4 C 78 % 0 lf 1015,2 hPa 0,0 l/m 0 min 0 min 19 W/m 16,7 km/h (3 Bft) 97,87 %
07.05.2017 19:44 15,4 C 15,6 C 13,9 C 78 % 0 lf 1015,2 hPa 0,0 l/m 0 min 0 min 16 W/m 18,8 km/h (3 Bft) 95,74 %
07.05.2017 19:46 15,4 C 15,6 C 13,9 C 78 % 0 lf 1015,2 hPa 0,0 l/m 0 min 0 min 14 W/m 16,7 km/h (3 Bft) 95,74 %
07.05.2017 19:48 15,3 C 15,6 C 13,9 C 78 % 0 lf 1015,3 hPa 0,0 l/m 0 min 0 min 12 W/m 23,0 km/h (4 Bft) 95,74 %
07.05.2017 19:50 15,3 C 15,0 C 13,9 C 78 % 0 lf 1015,2 hPa 0,0 l/m 0 min 0 min 10 W/m 25,1 km/h (4 Bft) 97,87 %
07.05.2017 19:52 15,2 C 15,0 C 13,9 C 78 % 0 lf 1015,3 hPa 0,0 l/m 0 min 0 min 9 W/m 25,1 km/h (4 Bft) 93,48 %
07.05.2017 19:54 15,2 C 15,0 C 13,9 C 78 % 0 lf 1015,3 hPa 0,0 l/m 0 min 0 min 9 W/m 20,9 km/h (4 Bft) 95,74 %
07.05.2017 19:56 15,2 C 15,0 C 13,9 C 78 % 0 lf 1015,3 hPa 0,0 l/m 0 min 0 min 8 W/m 16,7 km/h (3 Bft) 95,74 %
07.05.2017 19:58 15,1 C 15,0 C 13,3 C 78 % 0 lf 1015,4 hPa 0,0 l/m 0 min 0 min 7 W/m 18,8 km/h (3 Bft) 95,74 %
07.05.2017 20:00 15,1 C 15,0 C 13,3 C 78 % 0 lf 1015,3 hPa 0,0 l/m 0 min 0 min 6 W/m 20,9 km/h (4 Bft) 97,87 %
07.05.2017 20:02 15,1 C 14,4 C 13,3 C 78 % 0 lf 1015,4 hPa 0,0 l/m 0 min 0 min 5 W/m 23,0 km/h (4 Bft) 97,87 %
07.05.2017 20:04 15,0 C 14,4 C 13,3 C 79 % 0 lf 1015,4 hPa 0,0 l/m 0 min 0 min 5 W/m 25,1 km/h (4 Bft) 95,65 %
07.05.2017 20:06 14,9 C 14,4 C 13,3 C 79 % 0 lf 1015,4 hPa 0,0 l/m 0 min 0 min 5 W/m 18,8 km/h (3 Bft) 97,87 %
07.05.2017 20:08 14,9 C 14,4 C 13,3 C 79 % 0 lf 1015,4 hPa 0,0 l/m 0 min 0 min 6 W/m 23,0 km/h (4 Bft) 95,74 %
07.05.2017 20:10 14,9 C 14,4 C 13,3 C 79 % 0 lf 1015,4 hPa 0,0 l/m 0 min 0 min 5 W/m 23,0 km/h (4 Bft) 97,87 %
07.05.2017 20:12 14,8 C 14,4 C 12,8 C 80 % 0 lf 1015,4 hPa 0,0 l/m 0 min 0 min 5 W/m 18,8 km/h (3 Bft) 97,87 %
07.05.2017 20:14 14,8 C 14,4 C 12,8 C 80 % 4 lf 1015,4 hPa 0,0 l/m 0 min 0 min 5 W/m 20,9 km/h (4 Bft) 95,65 %
07.05.2017 20:16 14,7 C 14,4 C 12,8 C 81 % 1 lf 1015,5 hPa 0,0 l/m 0 min 2 min 2 W/m 18,8 km/h (3 Bft) 97,87 %
07.05.2017 20:18 14,7 C 13,9 C 12,8 C 81 % 0 lf 1015,5 hPa 0,0 l/m 0 min 0 min 0 W/m 25,1 km/h (4 Bft) 97,87 %
07.05.2017 20:20 14,6 C 13,9 C 12,8 C 81 % 1 lf 1015,4 hPa 0,0 l/m 0 min 0 min 0 W/m 20,9 km/h (4 Bft) 95,74 %
07.05.2017 20:22 14,6 C 13,9 C 12,8 C 82 % 0 lf 1015,4 hPa 0,0 l/m 0 min 0 min 0 W/m 18,8 km/h (3 Bft) 95,74 %
07.05.2017 20:24 14,5 C 13,9 C 12,8 C 82 % 1 lf 1015,5 hPa 0,0 l/m 0 min 0 min 0 W/m 18,8 km/h (3 Bft) 95,74 %
07.05.2017 20:26 14,4 C 13,9 C 12,8 C 82 % 3 lf 1015,5 hPa 0,0 l/m 0 min 2 min 0 W/m 16,7 km/h (3 Bft) 95,65 %
07.05.2017 20:28 14,4 C 13,9 C 12,2 C 82 % 4 lf 1015,5 hPa 0,0 l/m 0 min 2 min 0 W/m 18,8 km/h (3 Bft) 93,62 %
07.05.2017 20:30 14,3 C 13,9 C 12,2 C 82 % 3 lf 1015,5 hPa 0,0 l/m 0 min 2 min 0 W/m 20,9 km/h (4 Bft) 93,62 %
07.05.2017 20:32 14,3 C 13,9 C 12,2 C 82 % 1 lf 1015,6 hPa 0,0 l/m 0 min 0 min 0 W/m 16,7 km/h (3 Bft) 95,74 %
07.05.2017 20:34 14,2 C 13,9 C 12,2 C 82 % 1 lf 1015,6 hPa 0,0 l/m 0 min 0 min 0 W/m 18,8 km/h (3 Bft) 93,62 %
07.05.2017 20:36 14,2 C 13,9 C 12,2 C 83 % 0 lf 1015,6 hPa 0,0 l/m 0 min 0 min 0 W/m 16,7 km/h (3 Bft) 93,62 %
07.05.2017 20:38 14,2 C 13,9 C 12,2 C 83 % 1 lf 1015,6 hPa 0,0 l/m 0 min 0 min 0 W/m 18,8 km/h (3 Bft) 97,83 %
07.05.2017 20:40 14,2 C 13,3 C 12,2 C 83 % 0 lf 1015,6 hPa 0,0 l/m 0 min 0 min 0 W/m 14,6 km/h (3 Bft) 97,87 %
07.05.2017 20:42 14,1 C 13,3 C 12,2 C 83 % 0 lf 1015,6 hPa 0,0 l/m 0 min 0 min 0 W/m 16,7 km/h (3 Bft) 93,62 %
07.05.2017 20:44 14,1 C 13,3 C 12,2 C 83 % 0 lf 1015,6 hPa 0,0 l/m 0 min 0 min 0 W/m 14,6 km/h (3 Bft) 97,87 %
07.05.2017 20:46 14,0 C 13,3 C 12,2 C 83 % 0 lf 1015,6 hPa 0,0 l/m 0 min 0 min 0 W/m 12,6 km/h (3 Bft) 97,87 %
07.05.2017 20:48 13,9 C 13,3 C 12,2 C 83 % 0 lf 1015,6 hPa 0,0 l/m 0 min 0 min 0 W/m 14,6 km/h (3 Bft) 98,00 %
07.05.2017 20:50 13,9 C 13,3 C 12,2 C 82 % 0 lf 1015,7 hPa 0,0 l/m 0 min 0 min 0 W/m 23,0 km/h (4 Bft) 95,65 %
07.05.2017 20:52 13,8 C 13,3 C 12,2 C 82 % 0 lf 1015,6 hPa 0,0 l/m 0 min 0 min 0 W/m 25,1 km/h (4 Bft) 95,74 %
07.05.2017 20:54 13,8 C 13,3 C 12,2 C 82 % 0 lf 1015,6 hPa 0,0 l/m 0 min 0 min 0 W/m 27,2 km/h (4 Bft) 95,74 %
07.05.2017 20:56 13,7 C 13,3 C 12,2 C 82 % 0 lf 1015,6 hPa 0,0 l/m 0 min 0 min 0 W/m 20,9 km/h (4 Bft) 95,74 %
07.05.2017 20:58 13,7 C 13,3 C 12,2 C 82 % 0 lf 1015,7 hPa 0,0 l/m 0 min 0 min 0 W/m 14,6 km/h (3 Bft) 97,87 %
07.05.2017 21:00 13,7 C 13,3 C 12,2 C 82 % 0 lf 1015,6 hPa 0,0 l/m 0 min 0 min 0 W/m 14,6 km/h (3 Bft) 89,36 %
07.05.2017 21:02 13,6 C 13,3 C 12,2 C 82 % 0 lf 1015,7 hPa 0,0 l/m 0 min 0 min 0 W/m 20,9 km/h (4 Bft) 97,14 %
07.05.2017 21:04 13,6 C 13,3 C 12,2 C 82 % 0 lf 1015,7 hPa 0,0 l/m 0 min 0 min 0 W/m 12,6 km/h (3 Bft) 97,83 %
07.05.2017 21:06 13,6 C 13,3 C 12,2 C 82 % 0 lf 1015,7 hPa 0,0 l/m 0 min 0 min 0 W/m 18,8 km/h (3 Bft) 95,74 %
07.05.2017 21:08 13,6 C 13,3 C 12,2 C 82 % 0 lf 1015,7 hPa 0,0 l/m 0 min 0 min 0 W/m 16,7 km/h (3 Bft) 97,87 %
07.05.2017 21:10 13,5 C 13,3 C 12,2 C 82 % 0 lf 1015,7 hPa 0,0 l/m 0 min 0 min 0 W/m 14,6 km/h (3 Bft) 97,87 %
07.05.2017 21:12 13,4 C 13,3 C 12,2 C 82 % 0 lf 1015,7 hPa 0,0 l/m 0 min 0 min 0 W/m 23,0 km/h (4 Bft) 100,00 %
07.05.2017 21:14 13,4 C 13,3 C 11,7 C 82 % 0 lf 1015,8 hPa 0,0 l/m 0 min 0 min 0 W/m 20,9 km/h (4 Bft) 95,74 %
07.05.2017 21:16 13,4 C 13,3 C 11,7 C 82 % 0 lf 1015,8 hPa 0,0 l/m 0 min 0 min 0 W/m 20,9 km/h (4 Bft) 95,65 %
07.05.2017 21:18 13,4 C 13,3 C 11,7 C 82 % 0 lf 1015,8 hPa 0,0 l/m 0 min 0 min 0 W/m 18,8 km/h (3 Bft) 97,87 %
07.05.2017 21:20 13,4 C 13,3 C 11,7 C 82 % 0 lf 1015,8 hPa 0,0 l/m 0 min 0 min 0 W/m 16,7 km/h (3 Bft) 97,87 %
07.05.2017 21:22 13,3 C 13,3 C 11,7 C 82 % 0 lf 1015,9 hPa 0,0 l/m 0 min 0 min 0 W/m 23,0 km/h (4 Bft) 97,87 %
07.05.2017 21:24 13,3 C 13,3 C 11,7 C 82 % 0 lf 1015,9 hPa 0,0 l/m 0 min 0 min 0 W/m 16,7 km/h (3 Bft) 95,74 %
07.05.2017 21:26 13,3 C 13,3 C 11,7 C 83 % 0 lf 1015,9 hPa 0,0 l/m 0 min 0 min 0 W/m 16,7 km/h (3 Bft) 97,87 %
07.05.2017 21:28 13,3 C 13,3 C 11,7 C 83 % 0 lf 1015,9 hPa 0,0 l/m 0 min 0 min 0 W/m 27,2 km/h (4 Bft) 95,65 %
07.05.2017 21:30 13,2 C 12,8 C 11,7 C 83 % 0 lf 1016,0 hPa 0,0 l/m 0 min 0 min 0 W/m 20,9 km/h (4 Bft) 93,62 %
07.05.2017 21:32 13,2 C 12,8 C 11,7 C 83 % 0 lf 1016,1 hPa 0,0 l/m 0 min 0 min 0 W/m 23,0 km/h (4 Bft) 95,74 %
07.05.2017 21:34 13,2 C 12,8 C 11,7 C 83 % 0 lf 1016,1 hPa 0,0 l/m 0 min 0 min 0 W/m 14,6 km/h (3 Bft) 95,74 %
07.05.2017 21:36 13,2 C 12,8 C 11,7 C 83 % 0 lf 1016,1 hPa 0,0 l/m 0 min 0 min 0 W/m 16,7 km/h (3 Bft) 91,49 %
07.05.2017 21:38 13,2 C 12,8 C 11,7 C 83 % 0 lf 1016,1 hPa 0,0 l/m 0 min 0 min 0 W/m 14,6 km/h (3 Bft) 95,74 %
07.05.2017 21:40 13,1 C 12,8 C 11,7 C 83 % 0 lf 1016,2 hPa 0,0 l/m 0 min 0 min 0 W/m 20,9 km/h (4 Bft) 97,83 %
07.05.2017 21:42 13,1 C 12,8 C 11,7 C 83 % 0 lf 1016,2 hPa 0,0 l/m 0 min 0 min 0 W/m 18,8 km/h (3 Bft) 95,74 %
07.05.2017 21:44 13,1 C 12,8 C 11,7 C 83 % 0 lf 1016,3 hPa 0,0 l/m 0 min 0 min 0 W/m 18,8 km/h (3 Bft) 95,74 %
07.05.2017 21:46 13,1 C 12,8 C 11,7 C 83 % 0 lf 1016,2 hPa 0,0 l/m 0 min 0 min 0 W/m 25,1 km/h (4 Bft) 95,74 %
07.05.2017 21:48 13,1 C 12,8 C 11,7 C 83 % 0 lf 1016,2 hPa 0,0 l/m 0 min 0 min 0 W/m 20,9 km/h (4 Bft) 95,74 %
07.05.2017 21:50 13,0 C 12,8 C 11,7 C 83 % 0 lf 1016,3 hPa 0,0 l/m 0 min 0 min 0 W/m 14,6 km/h (3 Bft) 93,62 %
07.05.2017 21:52 13,0 C 12,8 C 11,7 C 83 % 0 lf 1016,3 hPa 0,0 l/m 0 min 0 min 0 W/m 14,6 km/h (3 Bft) 93,48 %
07.05.2017 21:54 13,0 C 12,8 C 11,7 C 83 % 0 lf 1016,3 hPa 0,0 l/m 0 min 0 min 0 W/m 16,7 km/h (3 Bft) 95,74 %
07.05.2017 21:56 12,9 C 12,8 C 11,1 C 84 % 0 lf 1016,4 hPa 0,0 l/m 0 min 0 min 0 W/m 16,7 km/h (3 Bft) 97,87 %
07.05.2017 21:58 12,9 C 12,8 C 11,1 C 84 % 0 lf 1016,4 hPa 0,0 l/m 0 min 0 min 0 W/m 18,8 km/h (3 Bft) 97,87 %
07.05.2017 22:00 12,9 C 12,8 C 11,1 C 84 % 0 lf 1016,4 hPa 0,0 l/m 0 min 0 min 0 W/m 16,7 km/h (3 Bft) 97,87 %
07.05.2017 22:02 12,9 C 12,8 C 11,1 C 84 % 0 lf 1016,4 hPa 0,0 l/m 0 min 0 min 0 W/m 16,7 km/h (3 Bft) 95,74 %
07.05.2017 22:04 12,8 C 12,8 C 11,1 C 84 % 0 lf 1016,5 hPa 0,0 l/m 0 min 0 min 0 W/m 18,8 km/h (3 Bft) 97,83 %
07.05.2017 22:06 12,8 C 12,8 C 11,1 C 84 % 0 lf 1016,4 hPa 0,0 l/m 0 min 0 min 0 W/m 16,7 km/h (3 Bft) 97,87 %
07.05.2017 22:08 12,8 C 12,8 C 11,1 C 84 % 0 lf 1016,5 hPa 0,0 l/m 0 min 0 min 0 W/m 20,9 km/h (4 Bft) 95,74 %
07.05.2017 22:10 12,8 C 12,8 C 11,1 C 84 % 0 lf 1016,5 hPa 0,0 l/m 0 min 0 min 0 W/m 10,5 km/h (2 Bft) 97,87 %
07.05.2017 22:12 12,7 C 12,2 C 11,1 C 84 % 0 lf 1016,5 hPa 0,0 l/m 0 min 0 min 0 W/m 12,6 km/h (3 Bft) 93,62 %
07.05.2017 22:14 12,7 C 12,2 C 11,1 C 84 % 0 lf 1016,6 hPa 0,0 l/m 0 min 0 min 0 W/m 14,6 km/h (3 Bft) 97,83 %
07.05.2017 22:16 12,7 C 12,2 C 11,1 C 84 % 0 lf 1016,5 hPa 0,0 l/m 0 min 0 min 0 W/m 20,9 km/h (4 Bft) 97,87 %
07.05.2017 22:18 12,7 C 12,2 C 11,1 C 84 % 0 lf 1016,5 hPa 0,0 l/m 0 min 0 min 0 W/m 25,1 km/h (4 Bft) 100,00 %
07.05.2017 22:20 12,7 C 12,2 C 11,1 C 84 % 0 lf 1016,6 hPa 0,0 l/m 0 min 0 min 0 W/m 14,6 km/h (3 Bft) 100,00 %
07.05.2017 22:22 12,6 C 12,2 C 11,1 C 84 % 0 lf 1016,6 hPa 0,0 l/m 0 min 0 min 0 W/m 20,9 km/h (4 Bft) 100,00 %
07.05.2017 22:24 12,6 C 12,2 C 11,1 C 84 % 0 lf 1016,6 hPa 0,0 l/m 0 min 0 min 0 W/m 18,8 km/h (3 Bft) 97,87 %
07.05.2017 22:26 12,6 C 12,2 C 10,6 C 84 % 0 lf 1016,7 hPa 0,0 l/m 0 min 0 min 0 W/m 10,5 km/h (2 Bft) 100,00 %
07.05.2017 22:28 12,6 C 12,2 C 10,6 C 84 % 0 lf 1016,6 hPa 0,0 l/m 0 min 0 min 0 W/m 16,7 km/h (3 Bft) 100,00 %
07.05.2017 22:30 12,5 C 12,2 C 10,6 C 84 % 0 lf 1016,7 hPa 0,0 l/m 0 min 0 min 0 W/m 16,7 km/h (3 Bft) 95,74 %
07.05.2017 22:32 12,4 C 12,2 C 10,6 C 84 % 0 lf 1016,7 hPa 0,0 l/m 0 min 0 min 0 W/m 23,0 km/h (4 Bft) 100,00 %
07.05.2017 22:34 12,4 C 12,2 C 10,6 C 84 % 0 lf 1016,7 hPa 0,0 l/m 0 min 0 min 0 W/m 25,1 km/h (4 Bft) 100,00 %
07.05.2017 22:36 12,4 C 12,2 C 10,6 C 84 % 0 lf 1016,7 hPa 0,0 l/m 0 min 0 min 0 W/m 23,0 km/h (4 Bft) 100,00 %
07.05.2017 22:38 12,3 C 12,2 C 10,6 C 84 % 0 lf 1016,7 hPa 0,0 l/m 0 min 0 min 0 W/m 20,9 km/h (4 Bft) 97,83 %
07.05.2017 22:40 12,3 C 12,2 C 10,6 C 84 % 0 lf 1016,8 hPa 0,0 l/m 0 min 0 min 0 W/m 20,9 km/h (4 Bft) 100,00 %
07.05.2017 22:42 12,2 C 12,2 C 10,6 C 84 % 0 lf 1016,8 hPa 0,0 l/m 0 min 0 min 0 W/m 20,9 km/h (4 Bft) 97,87 %
07.05.2017 22:44 12,2 C 11,7 C 10,6 C 84 % 0 lf 1016,8 hPa 0,0 l/m 0 min 0 min 0 W/m 20,9 km/h (4 Bft) 100,00 %
07.05.2017 22:46 12,2 C 11,7 C 10,6 C 84 % 0 lf 1016,8 hPa 0,0 l/m 0 min 0 min 0 W/m 14,6 km/h (3 Bft) 100,00 %
07.05.2017 22:48 12,2 C 11,7 C 10,6 C 84 % 0 lf 1016,9 hPa 0,0 l/m 0 min 0 min 0 W/m 16,7 km/h (3 Bft) 100,00 %
07.05.2017 22:50 12,1 C 11,7 C 10,6 C 84 % 0 lf 1016,9 hPa 0,0 l/m 0 min 0 min 0 W/m 23,0 km/h (4 Bft) 100,00 %
07.05.2017 22:52 12,1 C 11,7 C 10,6 C 84 % 0 lf 1016,9 hPa 0,0 l/m 0 min 0 min 0 W/m 16,7 km/h (3 Bft) 100,00 %
07.05.2017 22:54 12,1 C 11,7 C 10,6 C 84 % 0 lf 1016,9 hPa 0,0 l/m 0 min 0 min 0 W/m 16,7 km/h (3 Bft) 97,87 %
07.05.2017 22:56 12,0 C 11,7 C 10,6 C 84 % 0 lf 1016,9 hPa 0,0 l/m 0 min 0 min 0 W/m 16,7 km/h (3 Bft) 100,00 %
07.05.2017 22:58 12,0 C 11,7 C 10,6 C 84 % 0 lf 1016,9 hPa 0,0 l/m 0 min 0 min 0 W/m 23,0 km/h (4 Bft) 100,00 %
07.05.2017 23:00 11,9 C 11,7 C 10,6 C 84 % 0 lf 1016,9 hPa 0,0 l/m 0 min 0 min 0 W/m 16,7 km/h (3 Bft) 100,00 %
07.05.2017 23:02 11,9 C 11,7 C 10,6 C 84 % 0 lf 1016,9 hPa 0,0 l/m 0 min 0 min 0 W/m 16,7 km/h (3 Bft) 97,83 %
07.05.2017 23:04 11,9 C 11,7 C 10,6 C 84 % 0 lf 1016,9 hPa 0,0 l/m 0 min 0 min 0 W/m 18,8 km/h (3 Bft) 100,00 %
07.05.2017 23:06 11,9 C 11,7 C 10,6 C 84 % 0 lf 1016,8 hPa 0,0 l/m 0 min 0 min 5 W/m 16,7 km/h (3 Bft) 100,00 %
07.05.2017 23:08 11,8 C 11,7 C 10,0 C 84 % 0 lf 1016,9 hPa 0,0 l/m 0 min 0 min 0 W/m 16,7 km/h (3 Bft) 100,00 %
07.05.2017 23:10 11,8 C 11,7 C 10,0 C 84 % 0 lf 1016,8 hPa 0,0 l/m 0 min 0 min 0 W/m 20,9 km/h (4 Bft) 100,00 %
07.05.2017 23:12 11,8 C 11,7 C 10,0 C 84 % 0 lf 1016,9 hPa 0,0 l/m 0 min 0 min 0 W/m 20,9 km/h (4 Bft) 97,87 %
07.05.2017 23:14 11,7 C 11,1 C 10,0 C 84 % 0 lf 1016,9 hPa 0,0 l/m 0 min 0 min 0 W/m 20,9 km/h (4 Bft) 95,74 %
07.05.2017 23:16 11,7 C 11,1 C 10,0 C 84 % 0 lf 1016,9 hPa 0,0 l/m 0 min 0 min 0 W/m 18,8 km/h (3 Bft) 95,74 %
07.05.2017 23:18 11,6 C 11,1 C 10,0 C 84 % 0 lf 1017,0 hPa 0,0 l/m 0 min 0 min 0 W/m 27,2 km/h (4 Bft) 95,74 %
07.05.2017 23:20 11,5 C 11,1 C 9,4 C 84 % 0 lf 1017,0 hPa 0,0 l/m 0 min 0 min 0 W/m 18,8 km/h (3 Bft) 91,49 %
07.05.2017 23:22 11,4 C 10,6 C 9,4 C 84 % 0 lf 1017,0 hPa 0,0 l/m 0 min 0 min 0 W/m 18,8 km/h (3 Bft) 91,30 %
07.05.2017 23:24 11,3 C 10,6 C 9,4 C 83 % 0 lf 1016,9 hPa 0,0 l/m 0 min 0 min 0 W/m 27,2 km/h (4 Bft) 93,62 %
07.05.2017 23:26 11,3 C 10,6 C 9,4 C 83 % 0 lf 1017,0 hPa 0,0 l/m 0 min 0 min 0 W/m 20,9 km/h (4 Bft) 93,62 %
07.05.2017 23:28 11,2 C 10,6 C 9,4 C 83 % 0 lf 1016,9 hPa 0,0 l/m 0 min 0 min 0 W/m 20,9 km/h (4 Bft) 93,62 %
07.05.2017 23:30 11,1 C 10,6 C 8,9 C 83 % 0 lf 1017,0 hPa 0,0 l/m 0 min 0 min 0 W/m 20,9 km/h (4 Bft) 95,74 %
07.05.2017 23:32 11,1 C 10,6 C 8,9 C 83 % 0 lf 1017,1 hPa 0,0 l/m 0 min 0 min 0 W/m 27,2 km/h (4 Bft) 93,62 %
07.05.2017 23:34 10,9 C 10,6 C 8,9 C 83 % 0 lf 1017,1 hPa 0,0 l/m 0 min 0 min 0 W/m 29,3 km/h (5 Bft) 91,30 %
07.05.2017 23:36 10,9 C 10,6 C 8,9 C 83 % 0 lf 1017,0 hPa 0,0 l/m 0 min 0 min 0 W/m 18,8 km/h (3 Bft) 93,62 %
07.05.2017 23:38 10,8 C 10,0 C 8,9 C 83 % 0 lf 1017,0 hPa 0,0 l/m 0 min 0 min 0 W/m 20,9 km/h (4 Bft) 93,62 %
07.05.2017 23:40 10,8 C 10,0 C 8,9 C 83 % 0 lf 1017,0 hPa 0,0 l/m 0 min 0 min 0 W/m 20,9 km/h (4 Bft) 93,62 %
07.05.2017 23:42 10,7 C 10,0 C 8,9 C 83 % 0 lf 1017,0 hPa 0,0 l/m 0 min 0 min 0 W/m 14,6 km/h (3 Bft) 91,49 %
07.05.2017 23:44 10,7 C 10,0 C 8,9 C 84 % 0 lf 1017,1 hPa 0,0 l/m 0 min 0 min 0 W/m 10,5 km/h (2 Bft) 93,62 %
07.05.2017 23:46 10,6 C 10,0 C 8,9 C 84 % 0 lf 1017,1 hPa 0,0 l/m 0 min 0 min 0 W/m 16,7 km/h (3 Bft) 84,78 %
07.05.2017 23:48 10,6 C 10,0 C 8,9 C 84 % 0 lf 1017,1 hPa 0,0 l/m 0 min 0 min 0 W/m 18,8 km/h (3 Bft) 91,49 %
07.05.2017 23:50 10,6 C 10,0 C 8,9 C 84 % 0 lf 1017,2 hPa 0,0 l/m 0 min 0 min 0 W/m 14,6 km/h (3 Bft) 89,36 %
07.05.2017 23:52 10,6 C 10,0 C 8,9 C 84 % 0 lf 1017,1 hPa 0,0 l/m 0 min 0 min 0 W/m 23,0 km/h (4 Bft) 95,74 %
07.05.2017 23:54 10,5 C 10,0 C 8,9 C 84 % 0 lf 1017,1 hPa 0,0 l/m 0 min 0 min 0 W/m 20,9 km/h (4 Bft) 95,74 %
07.05.2017 23:56 10,4 C 10,0 C 8,9 C 84 % 0 lf 1017,1 hPa 0,0 l/m 0 min 0 min 0 W/m 18,8 km/h (3 Bft) 95,74 %
07.05.2017 23:58 10,4 C 10,0 C 8,9 C 85 % 0 lf 1017,1 hPa 0,0 l/m 0 min 0 min 0 W/m 23,0 km/h (4 Bft) 93,48 %
_ Min-Zeit 06:42 05:32 05:16 15:16 00:00 00:00 - - - - 00:00 23:46
Minimum _ 9,1 C 8,3 C 7,2 C 70 % 0 lf 1008,8 hPa - - - - 0,0 km/h (0 Bft) 84,78 %
_ Max-Zeit 15:30 13:50 15:10 07:50 20:14 23:50 00:00 11:36 20:16 13:50 15:32 00:12
Maximum _ 18,5 C 26,1 C 23,3 C 96 % 4 lf 1017,2 hPa 0,0 l/m 2 min 2 min 499 W/m 29,3 km/h
W-NW (5 Bft)
100,00 %
Durchschnitt _ 13,2 C 14,4 C 12,8 C 85 % 0 lf 1013,1 hPa #0,0 l/m #18 min. #8 min. 120 W/m 13,3 km/h (3 Bft) 96,46 %
© 2017 W. Hausmann